Wetterdaten: Dienstag, 22.08.2017
Datum Zeit Temp. Aussen Temp. o. S. +5cm Feuchte Auss BlattFeu 1 Luftdruck Regen Sonnenschein Regendauer Solar Windben Empfang
22.08.2017 00:00 15,9 C 15,0 C 13,9 C 84 % 0 lf 1021,4 hPa 0,0 l/m 0 min 0 min 0 W/m 0,0 km/h (0 Bft) 97,83 %
22.08.2017 00:02 15,8 C 15,0 C 13,9 C 84 % 0 lf 1021,2 hPa 0,0 l/m 0 min 0 min 0 W/m 0,0 km/h (0 Bft) 97,37 %
22.08.2017 00:04 15,8 C 15,0 C 13,3 C 84 % 0 lf 1021,3 hPa 0,0 l/m 0 min 0 min 0 W/m 0,0 km/h (0 Bft) 95,74 %
22.08.2017 00:08 15,8 C 15,0 C 13,3 C 84 % 0 lf 1021,4 hPa 0,0 l/m 0 min 0 min 0 W/m 0,0 km/h (0 Bft) 96,88 %
22.08.2017 00:10 15,8 C 15,0 C 13,3 C 84 % 0 lf 1021,4 hPa 0,0 l/m 0 min 0 min 0 W/m 0,0 km/h (0 Bft) 97,87 %
22.08.2017 00:12 15,8 C 15,0 C 13,3 C 85 % 0 lf 1021,4 hPa 0,0 l/m 0 min 0 min 0 W/m 4,2 km/h (1 Bft) 100,00 %
22.08.2017 00:14 15,8 C 15,0 C 13,3 C 85 % 0 lf 1021,4 hPa 0,0 l/m 0 min 0 min 0 W/m 2,1 km/h (1 Bft) 100,00 %
22.08.2017 00:16 15,8 C 15,0 C 13,3 C 85 % 0 lf 1021,4 hPa 0,0 l/m 0 min 0 min 0 W/m 0,0 km/h (0 Bft) 100,00 %
22.08.2017 00:18 15,8 C 14,4 C 13,3 C 85 % 0 lf 1021,4 hPa 0,0 l/m 0 min 0 min 0 W/m 2,1 km/h (1 Bft) 95,65 %
22.08.2017 00:20 15,8 C 15,0 C 13,3 C 85 % 0 lf 1021,4 hPa 0,0 l/m 0 min 0 min 0 W/m 0,0 km/h (0 Bft) 95,74 %
22.08.2017 00:22 15,7 C 15,0 C 13,3 C 85 % 0 lf 1021,4 hPa 0,0 l/m 0 min 0 min 0 W/m 0,0 km/h (0 Bft) 97,87 %
22.08.2017 00:24 15,7 C 15,0 C 13,3 C 85 % 0 lf 1021,4 hPa 0,0 l/m 0 min 0 min 0 W/m 0,0 km/h (0 Bft) 100,00 %
22.08.2017 00:26 15,7 C 15,0 C 13,3 C 85 % 0 lf 1021,2 hPa 0,0 l/m 0 min 0 min 1 W/m 0,0 km/h (0 Bft) 97,87 %
22.08.2017 00:28 15,7 C 15,0 C 13,3 C 85 % 0 lf 1021,2 hPa 0,0 l/m 0 min 0 min 5 W/m 0,0 km/h (0 Bft) 100,00 %
22.08.2017 00:30 15,7 C 14,4 C 13,3 C 85 % 0 lf 1021,2 hPa 0,0 l/m 0 min 0 min 3 W/m 0,0 km/h (0 Bft) 100,00 %
22.08.2017 00:32 15,6 C 14,4 C 13,3 C 85 % 0 lf 1021,3 hPa 0,0 l/m 0 min 0 min 5 W/m 0,0 km/h (0 Bft) 97,87 %
22.08.2017 00:34 15,6 C 14,4 C 13,3 C 85 % 0 lf 1021,3 hPa 0,0 l/m 0 min 0 min 0 W/m 0,0 km/h (0 Bft) 100,00 %
22.08.2017 00:36 15,6 C 14,4 C 13,3 C 85 % 0 lf 1021,2 hPa 0,0 l/m 0 min 0 min 5 W/m 0,0 km/h (0 Bft) 97,87 %
22.08.2017 00:38 15,6 C 14,4 C 13,3 C 85 % 0 lf 1021,2 hPa 0,0 l/m 0 min 0 min 2 W/m 0,0 km/h (0 Bft) 100,00 %
22.08.2017 00:40 15,6 C 14,4 C 12,8 C 85 % 0 lf 1021,2 hPa 0,0 l/m 0 min 0 min 0 W/m 2,1 km/h (1 Bft) 100,00 %
22.08.2017 00:42 15,6 C 14,4 C 12,8 C 85 % 0 lf 1021,2 hPa 0,0 l/m 0 min 0 min 0 W/m 2,1 km/h (1 Bft) 100,00 %
22.08.2017 00:44 15,5 C 13,9 C 13,3 C 85 % 0 lf 1021,2 hPa 0,0 l/m 0 min 0 min 0 W/m 2,1 km/h (1 Bft) 100,00 %
22.08.2017 00:46 15,5 C 13,9 C 13,3 C 86 % 0 lf 1021,2 hPa 0,0 l/m 0 min 0 min 0 W/m 0,0 km/h (0 Bft) 100,00 %
22.08.2017 00:48 15,5 C 13,9 C 13,3 C 86 % 0 lf 1021,2 hPa 0,0 l/m 0 min 0 min 0 W/m 0,0 km/h (0 Bft) 100,00 %
22.08.2017 00:50 15,5 C 13,9 C 12,8 C 86 % 0 lf 1021,1 hPa 0,0 l/m 0 min 0 min 0 W/m 2,1 km/h (1 Bft) 100,00 %
22.08.2017 00:52 15,4 C 13,9 C 12,8 C 86 % 0 lf 1021,1 hPa 0,0 l/m 0 min 0 min 0 W/m 0,0 km/h (0 Bft) 93,62 %
22.08.2017 00:54 15,4 C 13,9 C 12,8 C 86 % 0 lf 1021,1 hPa 0,0 l/m 0 min 0 min 0 W/m 0,0 km/h (0 Bft) 100,00 %
22.08.2017 00:56 15,4 C 13,9 C 12,8 C 86 % 0 lf 1021,1 hPa 0,0 l/m 0 min 0 min 0 W/m 0,0 km/h (0 Bft) 97,87 %
22.08.2017 00:58 15,4 C 13,3 C 12,2 C 86 % 0 lf 1021,1 hPa 0,0 l/m 0 min 0 min 0 W/m 0,0 km/h (0 Bft) 97,87 %
22.08.2017 01:00 15,3 C 13,3 C 12,2 C 86 % 0 lf 1021,1 hPa 0,0 l/m 0 min 0 min 0 W/m 0,0 km/h (0 Bft) 95,74 %
22.08.2017 01:02 15,3 C 13,3 C 12,2 C 86 % 1 lf 1021,1 hPa 0,0 l/m 0 min 0 min 0 W/m 0,0 km/h (0 Bft) 93,62 %
22.08.2017 01:04 15,3 C 13,3 C 12,2 C 86 % 1 lf 1021,1 hPa 0,0 l/m 0 min 0 min 0 W/m 0,0 km/h (0 Bft) 97,87 %
22.08.2017 01:06 15,2 C 13,3 C 12,2 C 86 % 1 lf 1021,1 hPa 0,0 l/m 0 min 0 min 0 W/m 0,0 km/h (0 Bft) 97,83 %
22.08.2017 01:08 15,2 C 13,3 C 12,2 C 86 % 1 lf 1021,1 hPa 0,0 l/m 0 min 0 min 0 W/m 0,0 km/h (0 Bft) 95,74 %
22.08.2017 01:10 15,2 C 12,8 C 11,7 C 86 % 1 lf 1021,1 hPa 0,0 l/m 0 min 0 min 0 W/m 0,0 km/h (0 Bft) 95,74 %
22.08.2017 01:12 15,2 C 12,8 C 11,7 C 86 % 1 lf 1021,1 hPa 0,0 l/m 0 min 0 min 0 W/m 0,0 km/h (0 Bft) 97,62 %
22.08.2017 01:14 15,1 C 12,8 C 11,7 C 86 % 1 lf 1021,1 hPa 0,0 l/m 0 min 0 min 0 W/m 0,0 km/h (0 Bft) 97,87 %
22.08.2017 01:16 15,1 C 12,8 C 11,7 C 86 % 1 lf 1021,1 hPa 0,0 l/m 0 min 0 min 0 W/m 0,0 km/h (0 Bft) 97,87 %
22.08.2017 01:18 15,1 C 12,8 C 11,7 C 86 % 1 lf 1021,0 hPa 0,0 l/m 0 min 0 min 0 W/m 0,0 km/h (0 Bft) 97,87 %
22.08.2017 01:20 15,0 C 12,8 C 11,7 C 86 % 1 lf 1021,0 hPa 0,0 l/m 0 min 0 min 0 W/m 0,0 km/h (0 Bft) 97,87 %
22.08.2017 01:22 14,9 C 12,8 C 11,7 C 86 % 1 lf 1021,0 hPa 0,0 l/m 0 min 0 min 0 W/m 0,0 km/h (0 Bft) 97,83 %
22.08.2017 01:24 14,9 C 12,8 C 11,7 C 86 % 1 lf 1021,1 hPa 0,0 l/m 0 min 0 min 0 W/m 0,0 km/h (0 Bft) 95,74 %
22.08.2017 01:26 14,9 C 12,2 C 11,7 C 86 % 1 lf 1021,1 hPa 0,0 l/m 0 min 0 min 0 W/m 0,0 km/h (0 Bft) 93,62 %
22.08.2017 01:28 14,8 C 12,2 C 11,7 C 86 % 1 lf 1021,0 hPa 0,0 l/m 0 min 0 min 0 W/m 0,0 km/h (0 Bft) 97,87 %
22.08.2017 01:30 14,8 C 12,2 C 11,7 C 86 % 1 lf 1021,0 hPa 0,0 l/m 0 min 0 min 1 W/m 0,0 km/h (0 Bft) 100,00 %
22.08.2017 01:32 14,7 C 12,2 C 11,7 C 86 % 1 lf 1021,0 hPa 0,0 l/m 0 min 0 min 0 W/m 0,0 km/h (0 Bft) 100,00 %
22.08.2017 01:34 14,7 C 12,2 C 11,7 C 86 % 1 lf 1021,0 hPa 0,0 l/m 0 min 0 min 3 W/m 0,0 km/h (0 Bft) 100,00 %
22.08.2017 01:36 14,7 C 12,2 C 11,1 C 86 % 1 lf 1021,1 hPa 0,0 l/m 0 min 0 min 0 W/m 0,0 km/h (0 Bft) 93,62 %
22.08.2017 01:38 14,6 C 12,2 C 11,1 C 86 % 1 lf 1021,0 hPa 0,0 l/m 0 min 0 min 0 W/m 0,0 km/h (0 Bft) 93,62 %
22.08.2017 01:40 14,6 C 12,2 C 11,1 C 87 % 1 lf 1021,0 hPa 0,0 l/m 0 min 0 min 0 W/m 0,0 km/h (0 Bft) 97,87 %
22.08.2017 01:42 14,5 C 12,2 C 11,1 C 86 % 1 lf 1021,0 hPa 0,0 l/m 0 min 0 min 0 W/m 0,0 km/h (0 Bft) 93,62 %
22.08.2017 01:44 14,5 C 12,2 C 11,1 C 86 % 1 lf 1021,0 hPa 0,0 l/m 0 min 0 min 1 W/m 0,0 km/h (0 Bft) 97,87 %
22.08.2017 01:46 14,4 C 12,2 C 11,1 C 87 % 1 lf 1021,0 hPa 0,0 l/m 0 min 0 min 5 W/m 0,0 km/h (0 Bft) 95,65 %
22.08.2017 01:48 14,4 C 12,2 C 11,1 C 87 % 2 lf 1021,1 hPa 0,0 l/m 0 min 0 min 0 W/m 0,0 km/h (0 Bft) 97,87 %
22.08.2017 01:50 14,3 C 12,2 C 11,1 C 87 % 2 lf 1021,0 hPa 0,0 l/m 0 min 0 min 0 W/m 0,0 km/h (0 Bft) 97,87 %
22.08.2017 01:52 14,3 C 12,2 C 11,1 C 87 % 2 lf 1021,0 hPa 0,0 l/m 0 min 0 min 0 W/m 0,0 km/h (0 Bft) 95,74 %
22.08.2017 01:54 14,2 C 11,7 C 11,1 C 87 % 2 lf 1021,1 hPa 0,0 l/m 0 min 0 min 0 W/m 0,0 km/h (0 Bft) 97,87 %
22.08.2017 01:56 14,2 C 11,7 C 11,1 C 87 % 1 lf 1021,0 hPa 0,0 l/m 0 min 0 min 0 W/m 2,1 km/h (1 Bft) 97,87 %
22.08.2017 01:58 14,2 C 12,2 C 11,1 C 87 % 1 lf 1021,1 hPa 0,0 l/m 0 min 0 min 0 W/m 0,0 km/h (0 Bft) 97,83 %
22.08.2017 02:00 14,2 C 12,2 C 11,1 C 87 % 1 lf 1021,0 hPa 0,0 l/m 0 min 0 min 0 W/m 0,0 km/h (0 Bft) 95,74 %
22.08.2017 02:02 14,2 C 12,2 C 11,1 C 87 % 1 lf 1021,0 hPa 0,0 l/m 0 min 0 min 0 W/m 0,0 km/h (0 Bft) 95,74 %
22.08.2017 02:04 14,2 C 12,2 C 11,1 C 87 % 2 lf 1021,0 hPa 0,0 l/m 0 min 0 min 0 W/m 0,0 km/h (0 Bft) 95,74 %
22.08.2017 02:06 14,1 C 12,2 C 11,1 C 87 % 2 lf 1021,0 hPa 0,0 l/m 0 min 0 min 0 W/m 0,0 km/h (0 Bft) 97,87 %
22.08.2017 02:08 14,1 C 11,7 C 11,1 C 88 % 2 lf 1020,9 hPa 0,0 l/m 0 min 0 min 0 W/m 0,0 km/h (0 Bft) 97,87 %
22.08.2017 02:10 14,0 C 11,7 C 11,1 C 88 % 2 lf 1020,9 hPa 0,0 l/m 0 min 0 min 1 W/m 0,0 km/h (0 Bft) 91,30 %
22.08.2017 02:12 14,0 C 11,7 C 11,1 C 88 % 2 lf 1020,9 hPa 0,0 l/m 0 min 0 min 0 W/m 0,0 km/h (0 Bft) 95,74 %
22.08.2017 02:14 13,9 C 11,7 C 10,6 C 88 % 2 lf 1020,9 hPa 0,0 l/m 0 min 0 min 0 W/m 0,0 km/h (0 Bft) 93,62 %
22.08.2017 02:16 13,9 C 11,7 C 10,6 C 88 % 2 lf 1020,9 hPa 0,0 l/m 0 min 0 min 0 W/m 0,0 km/h (0 Bft) 95,74 %
22.08.2017 02:18 13,9 C 11,7 C 10,6 C 88 % 2 lf 1020,9 hPa 0,0 l/m 0 min 0 min 0 W/m 0,0 km/h (0 Bft) 93,62 %
22.08.2017 02:20 13,8 C 11,7 C 10,6 C 88 % 2 lf 1020,8 hPa 0,0 l/m 0 min 0 min 0 W/m 0,0 km/h (0 Bft) 97,87 %
22.08.2017 02:22 13,8 C 11,7 C 10,6 C 88 % 2 lf 1020,8 hPa 0,0 l/m 0 min 0 min 0 W/m 0,0 km/h (0 Bft) 95,65 %
22.08.2017 02:24 13,8 C 11,7 C 10,6 C 88 % 2 lf 1020,9 hPa 0,0 l/m 0 min 0 min 1 W/m 0,0 km/h (0 Bft) 95,74 %
22.08.2017 02:26 13,7 C 11,7 C 10,6 C 88 % 2 lf 1020,9 hPa 0,0 l/m 0 min 0 min 0 W/m 0,0 km/h (0 Bft) 93,62 %
22.08.2017 02:28 13,7 C 11,7 C 10,6 C 88 % 2 lf 1020,9 hPa 0,0 l/m 0 min 0 min 5 W/m 0,0 km/h (0 Bft) 93,62 %
22.08.2017 02:30 13,6 C 11,7 C 10,6 C 88 % 2 lf 1020,9 hPa 0,0 l/m 0 min 0 min 2 W/m 0,0 km/h (0 Bft) 95,74 %
22.08.2017 02:32 13,6 C 11,7 C 10,6 C 88 % 2 lf 1020,8 hPa 0,0 l/m 0 min 0 min 0 W/m 0,0 km/h (0 Bft) 95,65 %
22.08.2017 02:34 13,6 C 11,7 C 10,6 C 88 % 2 lf 1020,9 hPa 0,0 l/m 0 min 0 min 0 W/m 0,0 km/h (0 Bft) 97,87 %
22.08.2017 02:36 13,5 C 11,7 C 10,6 C 88 % 2 lf 1021,0 hPa 0,0 l/m 0 min 0 min 0 W/m 0,0 km/h (0 Bft) 97,87 %
22.08.2017 02:38 13,5 C 11,1 C 10,6 C 88 % 2 lf 1020,9 hPa 0,0 l/m 0 min 0 min 0 W/m 0,0 km/h (0 Bft) 95,74 %
22.08.2017 02:40 13,4 C 11,1 C 10,6 C 88 % 2 lf 1020,9 hPa 0,0 l/m 0 min 0 min 0 W/m 0,0 km/h (0 Bft) 93,62 %
22.08.2017 02:42 13,4 C 11,1 C 10,6 C 88 % 2 lf 1020,9 hPa 0,0 l/m 0 min 0 min 0 W/m 0,0 km/h (0 Bft) 95,74 %
22.08.2017 02:44 13,4 C 11,1 C 10,6 C 88 % 2 lf 1020,9 hPa 0,0 l/m 0 min 0 min 0 W/m 0,0 km/h (0 Bft) 97,83 %
22.08.2017 02:46 13,3 C 11,1 C 10,6 C 89 % 2 lf 1021,0 hPa 0,0 l/m 0 min 0 min 0 W/m 0,0 km/h (0 Bft) 95,74 %
22.08.2017 02:48 13,3 C 11,1 C 10,6 C 89 % 2 lf 1021,0 hPa 0,0 l/m 0 min 0 min 0 W/m 0,0 km/h (0 Bft) 93,62 %
22.08.2017 02:50 13,3 C 11,1 C 10,6 C 89 % 2 lf 1020,9 hPa 0,0 l/m 0 min 0 min 0 W/m 0,0 km/h (0 Bft) 91,49 %
22.08.2017 02:52 13,2 C 11,1 C 10,6 C 89 % 2 lf 1020,9 hPa 0,0 l/m 0 min 0 min 0 W/m 0,0 km/h (0 Bft) 93,62 %
22.08.2017 02:54 13,2 C 11,7 C 10,6 C 89 % 2 lf 1020,9 hPa 0,0 l/m 0 min 0 min 0 W/m 0,0 km/h (0 Bft) 95,74 %
22.08.2017 02:56 13,2 C 11,1 C 10,6 C 89 % 2 lf 1020,9 hPa 0,0 l/m 0 min 0 min 0 W/m 0,0 km/h (0 Bft) 93,48 %
22.08.2017 02:58 13,2 C 11,1 C 10,6 C 89 % 3 lf 1020,9 hPa 0,0 l/m 0 min 0 min 0 W/m 0,0 km/h (0 Bft) 95,74 %
22.08.2017 03:00 13,1 C 11,7 C 10,6 C 89 % 3 lf 1020,9 hPa 0,0 l/m 0 min 0 min 1 W/m 0,0 km/h (0 Bft) 95,74 %
22.08.2017 03:02 13,1 C 11,7 C 10,6 C 89 % 3 lf 1020,9 hPa 0,0 l/m 0 min 0 min 3 W/m 0,0 km/h (0 Bft) 97,87 %
22.08.2017 03:04 13,1 C 11,7 C 10,6 C 89 % 3 lf 1020,8 hPa 0,0 l/m 0 min 0 min 3 W/m 0,0 km/h (0 Bft) 95,74 %
22.08.2017 03:06 13,1 C 11,7 C 10,6 C 89 % 3 lf 1020,9 hPa 0,0 l/m 0 min 0 min 5 W/m 0,0 km/h (0 Bft) 93,62 %
22.08.2017 03:08 13,0 C 12,2 C 10,6 C 89 % 3 lf 1020,9 hPa 0,0 l/m 0 min 0 min 5 W/m 0,0 km/h (0 Bft) 93,48 %
22.08.2017 03:10 13,0 C 12,2 C 10,6 C 89 % 3 lf 1020,9 hPa 0,0 l/m 0 min 0 min 5 W/m 0,0 km/h (0 Bft) 95,74 %
22.08.2017 03:12 12,9 C 11,7 C 10,6 C 89 % 3 lf 1020,9 hPa 0,0 l/m 0 min 0 min 0 W/m 0,0 km/h (0 Bft) 95,74 %
22.08.2017 03:14 12,9 C 12,2 C 10,6 C 90 % 3 lf 1020,9 hPa 0,0 l/m 0 min 0 min 0 W/m 0,0 km/h (0 Bft) 95,74 %
22.08.2017 03:16 12,9 C 12,2 C 10,6 C 90 % 3 lf 1020,9 hPa 0,0 l/m 0 min 0 min 0 W/m 0,0 km/h (0 Bft) 93,62 %
22.08.2017 03:18 12,9 C 12,2 C 10,6 C 90 % 3 lf 1020,9 hPa 0,0 l/m 0 min 0 min 0 W/m 0,0 km/h (0 Bft) 93,62 %
22.08.2017 03:20 12,9 C 12,2 C 10,6 C 90 % 3 lf 1021,0 hPa 0,0 l/m 0 min 0 min 0 W/m 0,0 km/h (0 Bft) 97,83 %
22.08.2017 03:22 12,9 C 12,2 C 10,0 C 90 % 3 lf 1021,0 hPa 0,0 l/m 0 min 0 min 0 W/m 0,0 km/h (0 Bft) 97,87 %
22.08.2017 03:24 12,8 C 12,2 C 10,0 C 90 % 3 lf 1021,0 hPa 0,0 l/m 0 min 0 min 0 W/m 0,0 km/h (0 Bft) 95,74 %
22.08.2017 03:26 12,8 C 12,2 C 10,0 C 90 % 3 lf 1021,0 hPa 0,0 l/m 0 min 0 min 0 W/m 0,0 km/h (0 Bft) 95,74 %
22.08.2017 03:28 12,8 C 12,2 C 10,0 C 91 % 3 lf 1021,0 hPa 0,0 l/m 0 min 0 min 0 W/m 0,0 km/h (0 Bft) 97,87 %
22.08.2017 03:30 12,8 C 11,7 C 10,0 C 91 % 3 lf 1021,0 hPa 0,0 l/m 0 min 0 min 0 W/m 0,0 km/h (0 Bft) 95,74 %
22.08.2017 03:32 12,8 C 11,7 C 10,0 C 91 % 3 lf 1021,0 hPa 0,0 l/m 0 min 0 min 0 W/m 0,0 km/h (0 Bft) 97,83 %
22.08.2017 03:34 12,8 C 11,7 C 10,0 C 91 % 3 lf 1021,0 hPa 0,0 l/m 0 min 0 min 0 W/m 0,0 km/h (0 Bft) 97,87 %
22.08.2017 03:36 12,7 C 11,7 C 10,0 C 91 % 3 lf 1021,0 hPa 0,0 l/m 0 min 0 min 0 W/m 0,0 km/h (0 Bft) 93,62 %
22.08.2017 03:38 12,7 C 11,7 C 10,0 C 91 % 3 lf 1021,0 hPa 0,0 l/m 0 min 0 min 0 W/m 0,0 km/h (0 Bft) 97,87 %
22.08.2017 03:40 12,7 C 11,7 C 10,0 C 91 % 3 lf 1021,0 hPa 0,0 l/m 0 min 0 min 0 W/m 0,0 km/h (0 Bft) 97,87 %
22.08.2017 03:42 12,7 C 11,7 C 10,0 C 91 % 3 lf 1021,0 hPa 0,0 l/m 0 min 0 min 1 W/m 0,0 km/h (0 Bft) 97,83 %
22.08.2017 03:44 12,7 C 11,7 C 10,0 C 91 % 3 lf 1021,0 hPa 0,0 l/m 0 min 0 min 0 W/m 0,0 km/h (0 Bft) 97,87 %
22.08.2017 03:46 12,6 C 11,7 C 10,0 C 91 % 3 lf 1021,0 hPa 0,0 l/m 0 min 0 min 0 W/m 0,0 km/h (0 Bft) 97,87 %
22.08.2017 03:48 12,6 C 11,7 C 10,0 C 91 % 3 lf 1021,0 hPa 0,0 l/m 0 min 0 min 0 W/m 0,0 km/h (0 Bft) 97,87 %
22.08.2017 03:50 12,6 C 11,7 C 10,0 C 91 % 3 lf 1021,0 hPa 0,0 l/m 0 min 0 min 0 W/m 0,0 km/h (0 Bft) 93,62 %
22.08.2017 03:52 12,6 C 11,7 C 10,0 C 91 % 3 lf 1021,0 hPa 0,0 l/m 0 min 0 min 0 W/m 0,0 km/h (0 Bft) 97,87 %
22.08.2017 03:54 12,6 C 11,7 C 10,0 C 91 % 3 lf 1021,0 hPa 0,0 l/m 0 min 0 min 0 W/m 0,0 km/h (0 Bft) 97,87 %
22.08.2017 03:56 12,5 C 11,7 C 10,0 C 91 % 3 lf 1021,0 hPa 0,0 l/m 0 min 0 min 0 W/m 0,0 km/h (0 Bft) 95,65 %
22.08.2017 03:58 12,5 C 11,7 C 10,0 C 91 % 3 lf 1021,0 hPa 0,0 l/m 0 min 0 min 0 W/m 0,0 km/h (0 Bft) 97,87 %
22.08.2017 04:00 12,5 C 11,7 C 10,0 C 92 % 3 lf 1021,0 hPa 0,0 l/m 0 min 0 min 0 W/m 2,1 km/h (1 Bft) 100,00 %
22.08.2017 04:05 12,4 C 11,7 C 10,0 C 92 % 3 lf 1021,0 hPa 0,0 l/m 0 min 0 min 0 W/m 2,1 km/h (1 Bft) 97,01 %
22.08.2017 04:06 12,4 C 11,7 C 10,0 C 92 % 3 lf 1021,0 hPa 0,0 l/m 0 min 0 min 0 W/m 4,2 km/h (1 Bft) 100,00 %
22.08.2017 04:08 12,4 C 11,7 C 10,0 C 92 % 3 lf 1021,0 hPa 0,0 l/m 0 min 0 min 0 W/m 4,2 km/h (1 Bft) 100,00 %
22.08.2017 04:10 12,4 C 11,7 C 10,0 C 92 % 4 lf 1020,9 hPa 0,0 l/m 0 min 0 min 0 W/m 0,0 km/h (0 Bft) 97,87 %
22.08.2017 04:12 12,4 C 11,7 C 10,0 C 92 % 4 lf 1020,9 hPa 0,0 l/m 0 min 0 min 0 W/m 0,0 km/h (0 Bft) 100,00 %
22.08.2017 04:14 12,4 C 11,7 C 10,0 C 92 % 4 lf 1020,8 hPa 0,0 l/m 0 min 0 min 0 W/m 0,0 km/h (0 Bft) 100,00 %
22.08.2017 04:16 12,3 C 11,7 C 10,0 C 92 % 4 lf 1020,9 hPa 0,0 l/m 0 min 0 min 0 W/m 0,0 km/h (0 Bft) 100,00 %
22.08.2017 04:18 12,3 C 11,7 C 10,0 C 92 % 4 lf 1021,0 hPa 0,0 l/m 0 min 0 min 0 W/m 0,0 km/h (0 Bft) 97,83 %
22.08.2017 04:20 12,3 C 11,7 C 10,0 C 92 % 4 lf 1020,9 hPa 0,0 l/m 0 min 0 min 0 W/m 0,0 km/h (0 Bft) 100,00 %
22.08.2017 04:22 12,3 C 11,7 C 10,0 C 92 % 4 lf 1020,9 hPa 0,0 l/m 0 min 0 min 0 W/m 0,0 km/h (0 Bft) 100,00 %
22.08.2017 04:24 12,3 C 11,7 C 10,0 C 92 % 4 lf 1020,9 hPa 0,0 l/m 0 min 0 min 0 W/m 4,2 km/h (1 Bft) 100,00 %
22.08.2017 04:26 12,2 C 11,7 C 10,0 C 92 % 4 lf 1020,8 hPa 0,0 l/m 0 min 0 min 0 W/m 4,2 km/h (1 Bft) 100,00 %
22.08.2017 04:28 12,2 C 11,7 C 10,0 C 92 % 4 lf 1020,9 hPa 0,0 l/m 0 min 0 min 0 W/m 2,1 km/h (1 Bft) 97,87 %
22.08.2017 04:30 12,2 C 11,7 C 10,0 C 92 % 4 lf 1020,9 hPa 0,0 l/m 0 min 0 min 0 W/m 2,1 km/h (1 Bft) 97,83 %
22.08.2017 04:32 12,2 C 11,7 C 10,0 C 92 % 4 lf 1020,8 hPa 0,0 l/m 0 min 0 min 0 W/m 0,0 km/h (0 Bft) 100,00 %
22.08.2017 04:34 12,2 C 11,7 C 10,0 C 92 % 4 lf 1020,8 hPa 0,0 l/m 0 min 0 min 0 W/m 0,0 km/h (0 Bft) 100,00 %
22.08.2017 04:36 12,2 C 11,7 C 10,0 C 92 % 4 lf 1020,8 hPa 0,0 l/m 0 min 0 min 0 W/m 0,0 km/h (0 Bft) 97,87 %
22.08.2017 04:38 12,2 C 11,7 C 10,0 C 92 % 4 lf 1020,7 hPa 0,0 l/m 0 min 0 min 0 W/m 0,0 km/h (0 Bft) 97,87 %
22.08.2017 04:40 12,1 C 11,1 C 10,0 C 92 % 4 lf 1020,8 hPa 0,0 l/m 0 min 0 min 0 W/m 0,0 km/h (0 Bft) 95,74 %
22.08.2017 04:42 12,1 C 11,7 C 10,0 C 92 % 4 lf 1020,8 hPa 0,0 l/m 0 min 0 min 0 W/m 0,0 km/h (0 Bft) 95,65 %
22.08.2017 04:44 12,1 C 11,7 C 10,0 C 92 % 4 lf 1020,8 hPa 0,0 l/m 0 min 0 min 0 W/m 0,0 km/h (0 Bft) 95,74 %
22.08.2017 04:46 12,1 C 11,7 C 10,0 C 92 % 4 lf 1020,7 hPa 0,0 l/m 0 min 0 min 0 W/m 0,0 km/h (0 Bft) 85,11 %
22.08.2017 04:48 12,1 C 11,7 C 10,0 C 93 % 4 lf 1020,7 hPa 0,0 l/m 0 min 0 min 0 W/m 0,0 km/h (0 Bft) 89,36 %
22.08.2017 04:50 12,1 C 11,7 C 10,0 C 93 % 3 lf 1020,7 hPa 0,0 l/m 0 min 0 min 0 W/m 0,0 km/h (0 Bft) 91,49 %
22.08.2017 04:52 12,1 C 11,7 C 10,0 C 93 % 3 lf 1020,7 hPa 0,0 l/m 0 min 0 min 0 W/m 0,0 km/h (0 Bft) 93,48 %
22.08.2017 04:54 12,1 C 11,7 C 10,0 C 93 % 3 lf 1020,7 hPa 0,0 l/m 0 min 0 min 0 W/m 0,0 km/h (0 Bft) 89,36 %
22.08.2017 04:56 12,1 C 11,7 C 10,0 C 93 % 3 lf 1020,8 hPa 0,0 l/m 0 min 0 min 0 W/m 0,0 km/h (0 Bft) 91,49 %
22.08.2017 04:58 12,1 C 11,7 C 10,0 C 93 % 3 lf 1020,8 hPa 0,0 l/m 0 min 0 min 0 W/m 0,0 km/h (0 Bft) 89,36 %
22.08.2017 05:00 12,1 C 11,7 C 10,0 C 93 % 3 lf 1020,8 hPa 0,0 l/m 0 min 0 min 0 W/m 0,0 km/h (0 Bft) 91,49 %
22.08.2017 05:02 12,1 C 11,7 C 10,0 C 93 % 3 lf 1020,8 hPa 0,0 l/m 0 min 0 min 0 W/m 0,0 km/h (0 Bft) 93,62 %
22.08.2017 05:04 12,1 C 11,7 C 10,0 C 93 % 3 lf 1020,8 hPa 0,0 l/m 0 min 0 min 0 W/m 0,0 km/h (0 Bft) 91,30 %
22.08.2017 05:06 12,1 C 11,7 C 10,6 C 93 % 3 lf 1020,8 hPa 0,0 l/m 0 min 0 min 0 W/m 0,0 km/h (0 Bft) 93,62 %
22.08.2017 05:08 12,1 C 11,7 C 10,6 C 93 % 3 lf 1020,7 hPa 0,0 l/m 0 min 0 min 0 W/m 0,0 km/h (0 Bft) 89,36 %
22.08.2017 05:10 12,1 C 11,7 C 10,6 C 93 % 3 lf 1020,8 hPa 0,0 l/m 0 min 0 min 0 W/m 0,0 km/h (0 Bft) 91,49 %
22.08.2017 05:12 12,1 C 11,7 C 10,6 C 93 % 2 lf 1020,8 hPa 0,0 l/m 0 min 0 min 0 W/m 0,0 km/h (0 Bft) 91,49 %
22.08.2017 05:14 12,1 C 11,7 C 10,6 C 93 % 2 lf 1020,8 hPa 0,0 l/m 0 min 0 min 0 W/m 0,0 km/h (0 Bft) 95,74 %
22.08.2017 05:16 12,1 C 11,7 C 10,6 C 94 % 2 lf 1020,8 hPa 0,0 l/m 0 min 0 min 0 W/m 0,0 km/h (0 Bft) 97,83 %
22.08.2017 05:18 12,1 C 11,7 C 10,6 C 94 % 2 lf 1020,7 hPa 0,0 l/m 0 min 0 min 0 W/m 0,0 km/h (0 Bft) 95,74 %
22.08.2017 05:20 12,1 C 12,2 C 10,6 C 94 % 2 lf 1020,8 hPa 0,0 l/m 0 min 0 min 0 W/m 0,0 km/h (0 Bft) 93,62 %
22.08.2017 05:23 12,1 C 12,2 C 11,1 C 94 % 2 lf 1020,8 hPa 0,0 l/m 0 min 0 min 0 W/m 0,0 km/h (0 Bft) 93,90 %
22.08.2017 05:24 12,1 C 12,2 C 11,1 C 94 % 2 lf 1020,8 hPa 0,0 l/m 0 min 0 min 0 W/m 0,0 km/h (0 Bft) 91,67 %
22.08.2017 05:28 12,1 C 12,2 C 11,1 C 94 % 1 lf 1020,7 hPa 0,0 l/m 0 min 0 min 0 W/m 6,3 km/h (2 Bft) 95,24 %
22.08.2017 05:29 12,1 C 12,2 C 11,1 C 94 % 1 lf 1020,7 hPa 0,0 l/m 0 min 0 min 0 W/m 4,2 km/h (1 Bft) 100,00 %
22.08.2017 05:30 12,1 C 12,2 C 11,1 C 94 % 1 lf 1020,7 hPa 0,0 l/m 0 min 0 min 0 W/m 6,3 km/h (2 Bft) 98,25 %
22.08.2017 05:35 12,1 C 12,2 C 11,1 C 94 % 1 lf 1020,7 hPa 0,0 l/m 0 min 0 min 0 W/m 2,1 km/h (1 Bft) 100,00 %
22.08.2017 05:40 12,2 C 12,2 C 11,1 C 94 % 1 lf 1020,6 hPa 0,0 l/m 0 min 0 min 0 W/m 4,2 km/h (1 Bft) 100,00 %
22.08.2017 05:45 12,2 C 12,2 C 11,1 C 94 % 1 lf 1020,7 hPa 0,0 l/m 0 min 0 min 0 W/m 4,2 km/h (1 Bft) 100,00 %
22.08.2017 05:50 12,2 C 12,2 C 11,1 C 94 % 1 lf 1020,7 hPa 0,0 l/m 0 min 0 min 0 W/m 2,1 km/h (1 Bft) 100,00 %
22.08.2017 05:55 12,2 C 12,2 C 11,1 C 94 % 1 lf 1020,7 hPa 0,0 l/m 0 min 0 min 0 W/m 0,0 km/h (0 Bft) 100,00 %
22.08.2017 06:00 12,2 C 12,2 C 11,1 C 94 % 1 lf 1020,7 hPa 0,0 l/m 0 min 0 min 0 W/m 0,0 km/h (0 Bft) 100,00 %
22.08.2017 06:05 12,2 C 12,2 C 11,1 C 94 % 1 lf 1020,7 hPa 0,0 l/m 0 min 0 min 0 W/m 0,0 km/h (0 Bft) 100,00 %
22.08.2017 06:10 12,3 C 12,2 C 11,7 C 95 % 1 lf 1020,7 hPa 0,0 l/m 0 min 0 min 0 W/m 0,0 km/h (0 Bft) 100,00 %
22.08.2017 06:15 12,3 C 12,2 C 11,7 C 95 % 1 lf 1020,7 hPa 0,0 l/m 0 min 0 min 0 W/m 4,2 km/h (1 Bft) 100,00 %
22.08.2017 06:20 12,3 C 12,8 C 11,7 C 95 % 1 lf 1020,7 hPa 0,0 l/m 0 min 0 min 0 W/m 4,2 km/h (1 Bft) 97,37 %
22.08.2017 06:22 12,3 C 12,8 C 11,7 C 95 % 1 lf 1020,7 hPa 0,0 l/m 0 min 0 min 0 W/m 4,2 km/h (1 Bft) 89,13 %
22.08.2017 06:24 12,4 C 12,2 C 11,7 C 95 % 1 lf 1020,7 hPa 0,0 l/m 0 min 0 min 0 W/m 6,3 km/h (2 Bft) 97,87 %
22.08.2017 06:26 12,4 C 12,2 C 11,7 C 95 % 1 lf 1020,7 hPa 0,0 l/m 0 min 0 min 0 W/m 4,2 km/h (1 Bft) 93,62 %
22.08.2017 06:28 12,4 C 12,2 C 11,7 C 95 % 1 lf 1020,7 hPa 0,0 l/m 0 min 0 min 0 W/m 6,3 km/h (2 Bft) 97,87 %
22.08.2017 06:30 12,4 C 12,2 C 11,7 C 95 % 1 lf 1020,8 hPa 0,0 l/m 0 min 0 min 0 W/m 4,2 km/h (1 Bft) 95,74 %
22.08.2017 06:32 12,4 C 12,2 C 11,7 C 95 % 1 lf 1020,7 hPa 0,0 l/m 0 min 0 min 0 W/m 0,0 km/h (0 Bft) 95,74 %
22.08.2017 06:34 12,4 C 12,8 C 11,7 C 95 % 1 lf 1020,8 hPa 0,0 l/m 0 min 0 min 0 W/m 0,0 km/h (0 Bft) 91,30 %
22.08.2017 06:36 12,4 C 12,8 C 11,7 C 95 % 1 lf 1020,7 hPa 0,0 l/m 0 min 0 min 0 W/m 6,3 km/h (2 Bft) 95,74 %
22.08.2017 06:38 12,4 C 12,8 C 11,7 C 95 % 1 lf 1020,7 hPa 0,0 l/m 0 min 0 min 0 W/m 6,3 km/h (2 Bft) 93,62 %
22.08.2017 06:40 12,4 C 12,8 C 11,7 C 95 % 1 lf 1020,7 hPa 0,0 l/m 0 min 0 min 2 W/m 6,3 km/h (2 Bft) 95,74 %
22.08.2017 06:42 12,4 C 12,8 C 11,7 C 95 % 1 lf 1020,7 hPa 0,0 l/m 0 min 0 min 5 W/m 6,3 km/h (2 Bft) 95,74 %
22.08.2017 06:44 12,4 C 12,8 C 11,7 C 95 % 1 lf 1020,7 hPa 0,0 l/m 0 min 0 min 6 W/m 4,2 km/h (1 Bft) 89,13 %
22.08.2017 06:46 12,4 C 12,8 C 11,7 C 95 % 1 lf 1020,7 hPa 0,0 l/m 0 min 0 min 7 W/m 6,3 km/h (2 Bft) 93,62 %
22.08.2017 06:48 12,4 C 12,8 C 11,7 C 95 % 1 lf 1020,7 hPa 0,0 l/m 0 min 0 min 7 W/m 6,3 km/h (2 Bft) 91,49 %
22.08.2017 06:50 12,5 C 12,8 C 11,7 C 95 % 1 lf 1020,8 hPa 0,0 l/m 0 min 0 min 9 W/m 6,3 km/h (2 Bft) 97,87 %
22.08.2017 06:52 12,5 C 12,8 C 11,7 C 95 % 1 lf 1020,7 hPa 0,0 l/m 0 min 0 min 10 W/m 4,2 km/h (1 Bft) 93,02 %
22.08.2017 06:54 12,5 C 12,8 C 11,7 C 95 % 1 lf 1020,7 hPa 0,0 l/m 0 min 0 min 11 W/m 6,3 km/h (2 Bft) 91,49 %
22.08.2017 06:56 12,5 C 12,8 C 11,7 C 95 % 1 lf 1020,7 hPa 0,0 l/m 0 min 0 min 12 W/m 8,4 km/h (2 Bft) 95,74 %
22.08.2017 06:58 12,5 C 12,8 C 11,7 C 95 % 1 lf 1020,7 hPa 0,0 l/m 0 min 0 min 13 W/m 6,3 km/h (2 Bft) 91,30 %
22.08.2017 07:00 12,6 C 12,8 C 11,7 C 95 % 1 lf 1020,7 hPa 0,0 l/m 0 min 0 min 14 W/m 6,3 km/h (2 Bft) 89,36 %
22.08.2017 07:02 12,6 C 12,8 C 11,7 C 95 % 1 lf 1020,7 hPa 0,0 l/m 0 min 0 min 15 W/m 6,3 km/h (2 Bft) 91,49 %
22.08.2017 07:04 12,6 C 12,8 C 11,7 C 95 % 1 lf 1020,7 hPa 0,0 l/m 0 min 0 min 16 W/m 6,3 km/h (2 Bft) 93,62 %
22.08.2017 07:06 12,6 C 12,8 C 11,7 C 95 % 1 lf 1020,7 hPa 0,0 l/m 0 min 0 min 17 W/m 6,3 km/h (2 Bft) 91,49 %
22.08.2017 07:08 12,6 C 12,8 C 11,7 C 95 % 1 lf 1020,6 hPa 0,0 l/m 0 min 0 min 18 W/m 8,4 km/h (2 Bft) 97,87 %
22.08.2017 07:10 12,6 C 12,8 C 11,7 C 95 % 1 lf 1020,7 hPa 0,0 l/m 0 min 0 min 18 W/m 6,3 km/h (2 Bft) 93,48 %
22.08.2017 07:12 12,6 C 12,8 C 11,7 C 95 % 1 lf 1020,7 hPa 0,0 l/m 0 min 0 min 19 W/m 6,3 km/h (2 Bft) 93,62 %
22.08.2017 07:14 12,6 C 12,8 C 11,7 C 95 % 1 lf 1020,7 hPa 0,0 l/m 0 min 0 min 19 W/m 4,2 km/h (1 Bft) 95,74 %
22.08.2017 07:16 12,6 C 12,8 C 11,7 C 95 % 1 lf 1020,7 hPa 0,0 l/m 0 min 0 min 20 W/m 6,3 km/h (2 Bft) 93,62 %
22.08.2017 07:18 12,6 C 12,8 C 11,7 C 95 % 1 lf 1020,8 hPa 0,0 l/m 0 min 0 min 21 W/m 4,2 km/h (1 Bft) 97,87 %
22.08.2017 07:20 12,6 C 12,8 C 11,7 C 95 % 1 lf 1020,8 hPa 0,0 l/m 0 min 0 min 21 W/m 6,3 km/h (2 Bft) 95,74 %
22.08.2017 07:22 12,6 C 12,8 C 11,7 C 95 % 1 lf 1020,7 hPa 0,0 l/m 0 min 0 min 21 W/m 6,3 km/h (2 Bft) 93,88 %
22.08.2017 07:24 12,6 C 12,8 C 12,2 C 95 % 1 lf 1020,7 hPa 0,0 l/m 0 min 0 min 21 W/m 6,3 km/h (2 Bft) 91,49 %
22.08.2017 07:26 12,6 C 12,8 C 12,2 C 95 % 1 lf 1020,7 hPa 0,0 l/m 0 min 0 min 23 W/m 6,3 km/h (2 Bft) 95,74 %
22.08.2017 07:28 12,6 C 12,8 C 12,2 C 95 % 1 lf 1020,7 hPa 0,0 l/m 0 min 0 min 24 W/m 6,3 km/h (2 Bft) 93,62 %
22.08.2017 07:30 12,7 C 12,8 C 12,2 C 95 % 1 lf 1020,7 hPa 0,0 l/m 0 min 0 min 26 W/m 6,3 km/h (2 Bft) 91,49 %
22.08.2017 07:32 12,7 C 13,3 C 12,2 C 95 % 1 lf 1020,6 hPa 0,0 l/m 0 min 0 min 28 W/m 6,3 km/h (2 Bft) 89,13 %
22.08.2017 07:34 12,7 C 13,3 C 12,2 C 95 % 1 lf 1020,7 hPa 0,0 l/m 0 min 0 min 30 W/m 6,3 km/h (2 Bft) 91,49 %
22.08.2017 07:36 12,7 C 13,3 C 12,2 C 95 % 1 lf 1020,7 hPa 0,0 l/m 0 min 0 min 31 W/m 6,3 km/h (2 Bft) 89,36 %
22.08.2017 07:38 12,7 C 13,3 C 12,2 C 95 % 1 lf 1020,7 hPa 0,0 l/m 0 min 0 min 32 W/m 6,3 km/h (2 Bft) 89,36 %
22.08.2017 07:40 12,7 C 13,3 C 12,2 C 95 % 1 lf 1020,7 hPa 0,0 l/m 0 min 0 min 33 W/m 6,3 km/h (2 Bft) 89,36 %
22.08.2017 07:42 12,7 C 13,3 C 12,2 C 94 % 1 lf 1020,7 hPa 0,0 l/m 0 min 0 min 36 W/m 0,0 km/h (0 Bft) 91,49 %
22.08.2017 07:44 12,8 C 13,3 C 12,2 C 94 % 1 lf 1020,7 hPa 0,0 l/m 0 min 0 min 37 W/m 0,0 km/h (0 Bft) 91,30 %
22.08.2017 07:46 12,8 C 13,3 C 12,8 C 94 % 1 lf 1020,6 hPa 0,0 l/m 0 min 0 min 37 W/m 0,0 km/h (0 Bft) 87,23 %
22.08.2017 07:48 12,8 C 13,3 C 12,8 C 94 % 1 lf 1020,7 hPa 0,0 l/m 0 min 0 min 39 W/m 0,0 km/h (0 Bft) 87,23 %
22.08.2017 07:50 12,8 C 13,3 C 12,8 C 94 % 0 lf 1020,7 hPa 0,0 l/m 0 min 0 min 40 W/m 4,2 km/h (1 Bft) 89,36 %
22.08.2017 07:52 12,8 C 13,3 C 12,8 C 94 % 0 lf 1020,6 hPa 0,0 l/m 0 min 0 min 42 W/m 4,2 km/h (1 Bft) 91,67 %
22.08.2017 07:54 12,8 C 13,3 C 12,8 C 94 % 0 lf 1020,7 hPa 0,0 l/m 0 min 0 min 46 W/m 6,3 km/h (2 Bft) 91,30 %
22.08.2017 07:56 12,8 C 13,3 C 12,8 C 94 % 0 lf 1020,7 hPa 0,0 l/m 0 min 0 min 48 W/m 6,3 km/h (2 Bft) 87,23 %
22.08.2017 07:58 12,9 C 13,9 C 12,8 C 95 % 0 lf 1020,7 hPa 0,0 l/m 0 min 0 min 49 W/m 6,3 km/h (2 Bft) 93,62 %
22.08.2017 08:00 12,9 C 13,9 C 12,8 C 94 % 0 lf 1020,7 hPa 0,0 l/m 0 min 0 min 53 W/m 4,2 km/h (1 Bft) 93,62 %
22.08.2017 08:02 12,9 C 13,9 C 12,8 C 94 % 0 lf 1020,7 hPa 0,0 l/m 0 min 0 min 54 W/m 10,5 km/h (2 Bft) 91,49 %
22.08.2017 08:04 12,9 C 13,9 C 12,8 C 94 % 0 lf 1020,7 hPa 0,0 l/m 0 min 0 min 58 W/m 8,4 km/h (2 Bft) 91,49 %
22.08.2017 08:06 12,9 C 13,9 C 12,8 C 94 % 0 lf 1020,7 hPa 0,0 l/m 0 min 0 min 78 W/m 10,5 km/h (2 Bft) 91,30 %
22.08.2017 08:08 13,0 C 13,9 C 13,3 C 94 % 0 lf 1020,7 hPa 0,0 l/m 0 min 0 min 107 W/m 10,5 km/h (2 Bft) 89,36 %
22.08.2017 08:10 13,0 C 13,9 C 13,3 C 94 % 0 lf 1020,7 hPa 0,0 l/m 0 min 0 min 93 W/m 12,6 km/h (3 Bft) 89,36 %
22.08.2017 08:12 13,1 C 14,4 C 13,3 C 94 % 0 lf 1020,7 hPa 0,0 l/m 0 min 0 min 89 W/m 10,5 km/h (2 Bft) 89,36 %
22.08.2017 08:14 13,1 C 14,4 C 13,3 C 94 % 0 lf 1020,6 hPa 0,0 l/m 0 min 0 min 90 W/m 10,5 km/h (2 Bft) 95,74 %
22.08.2017 08:16 13,1 C 14,4 C 13,3 C 94 % 0 lf 1020,6 hPa 0,0 l/m 0 min 0 min 101 W/m 10,5 km/h (2 Bft) 95,74 %
22.08.2017 08:18 13,2 C 14,4 C 13,3 C 94 % 0 lf 1020,6 hPa 0,0 l/m 0 min 0 min 108 W/m 12,6 km/h (3 Bft) 93,48 %
22.08.2017 08:20 13,2 C 14,4 C 13,9 C 94 % 0 lf 1020,7 hPa 0,0 l/m 0 min 0 min 105 W/m 10,5 km/h (2 Bft) 95,74 %
22.08.2017 08:22 13,2 C 14,4 C 13,9 C 94 % 0 lf 1020,6 hPa 0,0 l/m 0 min 0 min 105 W/m 10,5 km/h (2 Bft) 95,74 %
22.08.2017 08:24 13,2 C 14,4 C 13,9 C 94 % 0 lf 1020,6 hPa 0,0 l/m 0 min 0 min 108 W/m 8,4 km/h (2 Bft) 95,74 %
22.08.2017 08:26 13,3 C 15,0 C 13,9 C 94 % 0 lf 1020,6 hPa 0,0 l/m 0 min 0 min 108 W/m 4,2 km/h (1 Bft) 93,62 %
22.08.2017 08:28 13,3 C 15,0 C 13,9 C 94 % 0 lf 1020,6 hPa 0,0 l/m 0 min 0 min 115 W/m 6,3 km/h (2 Bft) 93,62 %
22.08.2017 08:30 13,3 C 15,0 C 13,9 C 94 % 0 lf 1020,6 hPa 0,0 l/m 0 min 0 min 118 W/m 8,4 km/h (2 Bft) 95,65 %
22.08.2017 08:32 13,4 C 15,0 C 13,9 C 94 % 0 lf 1020,6 hPa 0,0 l/m 0 min 0 min 122 W/m 10,5 km/h (2 Bft) 93,62 %
22.08.2017 08:34 13,4 C 15,0 C 14,4 C 93 % 0 lf 1020,6 hPa 0,0 l/m 0 min 0 min 126 W/m 8,4 km/h (2 Bft) 95,74 %
22.08.2017 08:36 13,4 C 15,0 C 14,4 C 93 % 0 lf 1020,6 hPa 0,0 l/m 0 min 0 min 131 W/m 8,4 km/h (2 Bft) 91,49 %
22.08.2017 08:38 13,5 C 15,0 C 14,4 C 93 % 0 lf 1020,7 hPa 0,0 l/m 0 min 0 min 134 W/m 10,5 km/h (2 Bft) 97,87 %
22.08.2017 08:40 13,6 C 15,0 C 14,4 C 93 % 0 lf 1020,6 hPa 0,0 l/m 0 min 0 min 136 W/m 8,4 km/h (2 Bft) 93,62 %
22.08.2017 08:42 13,6 C 15,6 C 14,4 C 93 % 0 lf 1020,7 hPa 0,0 l/m 0 min 0 min 140 W/m 10,5 km/h (2 Bft) 91,30 %
22.08.2017 08:44 13,6 C 15,6 C 14,4 C 93 % 0 lf 1020,7 hPa 0,0 l/m 0 min 0 min 145 W/m 6,3 km/h (2 Bft) 91,49 %
22.08.2017 08:46 13,7 C 16,1 C 14,4 C 93 % 0 lf 1020,7 hPa 0,0 l/m 0 min 0 min 155 W/m 8,4 km/h (2 Bft) 95,74 %
22.08.2017 08:48 13,7 C 16,1 C 14,4 C 92 % 0 lf 1020,7 hPa 0,0 l/m 0 min 0 min 167 W/m 4,2 km/h (1 Bft) 95,74 %
22.08.2017 08:50 13,8 C 16,7 C 14,4 C 93 % 0 lf 1020,6 hPa 0,0 l/m 0 min 0 min 167 W/m 8,4 km/h (2 Bft) 93,62 %
22.08.2017 08:52 13,8 C 16,7 C 14,4 C 92 % 0 lf 1020,7 hPa 0,0 l/m 2 min 0 min 177 W/m 10,5 km/h (2 Bft) 90,70 %
22.08.2017 08:54 13,9 C 18,9 C 14,4 C 92 % 0 lf 1020,7 hPa 0,0 l/m 2 min 0 min 289 W/m 8,4 km/h (2 Bft) 93,62 %
22.08.2017 08:56 13,9 C 19,4 C 14,4 C 92 % 0 lf 1020,7 hPa 0,0 l/m 2 min 0 min 291 W/m 10,5 km/h (2 Bft) 93,48 %
22.08.2017 08:58 14,1 C 20,0 C 14,4 C 92 % 0 lf 1020,6 hPa 0,0 l/m 2 min 0 min 297 W/m 10,5 km/h (2 Bft) 93,62 %
22.08.2017 09:00 14,2 C 20,6 C 14,4 C 92 % 0 lf 1020,7 hPa 0,0 l/m 2 min 0 min 300 W/m 10,5 km/h (2 Bft) 95,74 %
22.08.2017 09:02 14,2 C 20,0 C 14,4 C 92 % 0 lf 1020,7 hPa 0,0 l/m 2 min 0 min 305 W/m 10,5 km/h (2 Bft) 93,62 %
22.08.2017 09:04 14,3 C 20,0 C 15,0 C 91 % 0 lf 1020,8 hPa 0,0 l/m 2 min 0 min 309 W/m 14,6 km/h (3 Bft) 93,62 %
22.08.2017 09:06 14,4 C 21,1 C 15,0 C 91 % 0 lf 1020,7 hPa 0,0 l/m 2 min 0 min 312 W/m 14,6 km/h (3 Bft) 93,62 %
22.08.2017 09:08 14,6 C 21,7 C 15,0 C 91 % 0 lf 1020,7 hPa 0,0 l/m 2 min 0 min 317 W/m 12,6 km/h (3 Bft) 95,65 %
22.08.2017 09:10 14,7 C 21,7 C 15,0 C 90 % 0 lf 1020,7 hPa 0,0 l/m 2 min 0 min 319 W/m 12,6 km/h (3 Bft) 97,87 %
22.08.2017 09:12 14,8 C 22,2 C 15,0 C 90 % 0 lf 1020,7 hPa 0,0 l/m 2 min 0 min 322 W/m 14,6 km/h (3 Bft) 97,87 %
22.08.2017 09:14 14,9 C 21,7 C 15,0 C 90 % 0 lf 1020,8 hPa 0,0 l/m 2 min 0 min 329 W/m 12,6 km/h (3 Bft) 87,23 %
22.08.2017 09:16 15,1 C 22,2 C 15,0 C 89 % 0 lf 1020,8 hPa 0,0 l/m 2 min 0 min 336 W/m 8,4 km/h (2 Bft) 95,74 %
22.08.2017 09:18 15,2 C 22,2 C 15,0 C 89 % 0 lf 1020,8 hPa 0,0 l/m 2 min 0 min 345 W/m 14,6 km/h (3 Bft) 93,62 %
22.08.2017 09:20 15,4 C 22,2 C 15,6 C 89 % 0 lf 1020,8 hPa 0,0 l/m 2 min 0 min 350 W/m 8,4 km/h (2 Bft) 97,83 %
22.08.2017 09:22 15,6 C 22,2 C 15,6 C 88 % 0 lf 1020,8 hPa 0,0 l/m 2 min 0 min 327 W/m 8,4 km/h (2 Bft) 97,87 %
22.08.2017 09:24 15,7 C 22,2 C 15,6 C 88 % 0 lf 1020,8 hPa 0,0 l/m 2 min 0 min 306 W/m 8,4 km/h (2 Bft) 91,49 %
22.08.2017 09:26 15,8 C 22,2 C 15,6 C 87 % 0 lf 1020,8 hPa 0,0 l/m 2 min 0 min 338 W/m 10,5 km/h (2 Bft) 95,74 %
22.08.2017 09:28 15,9 C 22,8 C 15,6 C 87 % 0 lf 1020,8 hPa 0,0 l/m 2 min 0 min 306 W/m 12,6 km/h (3 Bft) 97,87 %
22.08.2017 09:30 16,1 C 22,8 C 16,1 C 86 % 0 lf 1020,8 hPa 0,0 l/m 2 min 0 min 338 W/m 10,5 km/h (2 Bft) 97,87 %
22.08.2017 09:32 16,2 C 22,2 C 16,1 C 85 % 0 lf 1020,7 hPa 0,0 l/m 2 min 0 min 358 W/m 10,5 km/h (2 Bft) 93,48 %
22.08.2017 09:34 16,3 C 22,2 C 16,1 C 84 % 0 lf 1020,7 hPa 0,0 l/m 2 min 0 min 364 W/m 12,6 km/h (3 Bft) 100,00 %
22.08.2017 09:36 16,5 C 23,3 C 16,1 C 84 % 0 lf 1020,8 hPa 0,0 l/m 2 min 0 min 369 W/m 10,5 km/h (2 Bft) 89,36 %
22.08.2017 09:38 16,6 C 24,4 C 16,7 C 84 % 0 lf 1020,8 hPa 0,0 l/m 2 min 0 min 374 W/m 10,5 km/h (2 Bft) 97,87 %
22.08.2017 09:40 16,8 C 23,9 C 16,7 C 83 % 0 lf 1020,8 hPa 0,0 l/m 2 min 0 min 379 W/m 8,4 km/h (2 Bft) 97,87 %
22.08.2017 09:42 16,9 C 23,9 C 17,2 C 83 % 0 lf 1020,7 hPa 0,0 l/m 2 min 0 min 384 W/m 12,6 km/h (3 Bft) 93,48 %
22.08.2017 09:44 17,1 C 23,9 C 17,8 C 82 % 0 lf 1020,8 hPa 0,0 l/m 2 min 0 min 390 W/m 8,4 km/h (2 Bft) 95,74 %
22.08.2017 09:46 17,2 C 25,0 C 17,8 C 82 % 0 lf 1020,8 hPa 0,0 l/m 2 min 0 min 400 W/m 8,4 km/h (2 Bft) 93,62 %
22.08.2017 09:48 17,3 C 25,0 C 17,8 C 82 % 0 lf 1020,8 hPa 0,0 l/m 2 min 0 min 408 W/m 10,5 km/h (2 Bft) 97,87 %
22.08.2017 09:50 17,5 C 25,0 C 17,2 C 81 % 0 lf 1020,8 hPa 0,0 l/m 2 min 0 min 411 W/m 8,4 km/h (2 Bft) 95,74 %
22.08.2017 09:52 17,6 C 23,3 C 17,8 C 81 % 0 lf 1020,8 hPa 0,0 l/m 2 min 0 min 415 W/m 10,5 km/h (2 Bft) 89,36 %
22.08.2017 09:54 17,8 C 24,4 C 18,3 C 80 % 0 lf 1020,8 hPa 0,0 l/m 2 min 0 min 423 W/m 12,6 km/h (3 Bft) 97,83 %
22.08.2017 09:56 17,9 C 24,4 C 18,3 C 80 % 0 lf 1020,8 hPa 0,0 l/m 2 min 0 min 430 W/m 12,6 km/h (3 Bft) 97,87 %
22.08.2017 09:58 18,0 C 24,4 C 18,9 C 80 % 0 lf 1020,8 hPa 0,0 l/m 2 min 0 min 434 W/m 12,6 km/h (3 Bft) 95,74 %
22.08.2017 10:00 18,2 C 24,4 C 20,0 C 79 % 0 lf 1020,8 hPa 0,0 l/m 2 min 0 min 442 W/m 8,4 km/h (2 Bft) 100,00 %
22.08.2017 10:02 18,3 C 24,4 C 21,1 C 78 % 0 lf 1020,8 hPa 0,0 l/m 2 min 0 min 448 W/m 8,4 km/h (2 Bft) 97,87 %
22.08.2017 10:04 18,3 C 23,9 C 21,7 C 78 % 0 lf 1020,7 hPa 0,0 l/m 2 min 0 min 454 W/m 14,6 km/h (3 Bft) 97,87 %
22.08.2017 10:06 18,4 C 23,9 C 21,7 C 77 % 0 lf 1020,8 hPa 0,0 l/m 2 min 0 min 455 W/m 14,6 km/h (3 Bft) 97,83 %
22.08.2017 10:08 18,6 C 25,0 C 22,8 C 77 % 0 lf 1020,7 hPa 0,0 l/m 2 min 0 min 458 W/m 8,4 km/h (2 Bft) 97,87 %
22.08.2017 10:10 18,7 C 26,1 C 22,8 C 77 % 0 lf 1020,7 hPa 0,0 l/m 2 min 0 min 466 W/m 12,6 km/h (3 Bft) 93,62 %
22.08.2017 10:12 18,8 C 25,0 C 22,8 C 77 % 0 lf 1020,7 hPa 0,0 l/m 2 min 0 min 476 W/m 12,6 km/h (3 Bft) 93,62 %
22.08.2017 10:14 18,9 C 25,0 C 22,8 C 76 % 0 lf 1020,7 hPa 0,0 l/m 2 min 0 min 481 W/m 8,4 km/h (2 Bft) 95,74 %
22.08.2017 10:16 18,9 C 26,1 C 23,3 C 76 % 0 lf 1020,7 hPa 0,0 l/m 2 min 0 min 493 W/m 10,5 km/h (2 Bft) 91,49 %
22.08.2017 10:18 19,1 C 26,7 C 23,3 C 76 % 0 lf 1020,7 hPa 0,0 l/m 2 min 0 min 510 W/m 10,5 km/h (2 Bft) 93,48 %
22.08.2017 10:20 19,2 C 26,7 C 23,3 C 76 % 0 lf 1020,6 hPa 0,0 l/m 2 min 0 min 514 W/m 10,5 km/h (2 Bft) 91,49 %
22.08.2017 10:22 19,3 C 27,2 C 23,3 C 75 % 0 lf 1020,7 hPa 0,0 l/m 2 min 0 min 532 W/m 12,6 km/h (3 Bft) 93,62 %
22.08.2017 10:24 19,4 C 26,1 C 23,9 C 75 % 0 lf 1020,7 hPa 0,0 l/m 2 min 0 min 516 W/m 16,7 km/h (3 Bft) 93,62 %
22.08.2017 10:26 19,5 C 25,6 C 23,9 C 74 % 0 lf 1020,6 hPa 0,0 l/m 2 min 0 min 596 W/m 12,6 km/h (3 Bft) 91,49 %
22.08.2017 10:28 19,6 C 26,7 C 23,9 C 73 % 0 lf 1020,6 hPa 0,0 l/m 2 min 0 min 600 W/m 10,5 km/h (2 Bft) 87,23 %
22.08.2017 10:30 19,7 C 26,1 C 23,9 C 73 % 0 lf 1020,6 hPa 0,0 l/m 2 min 0 min 649 W/m 12,6 km/h (3 Bft) 93,48 %
22.08.2017 10:32 19,8 C 26,1 C 23,9 C 73 % 0 lf 1020,6 hPa 0,0 l/m 2 min 0 min 532 W/m 10,5 km/h (2 Bft) 91,49 %
22.08.2017 10:34 19,9 C 27,8 C 24,4 C 73 % 0 lf 1020,6 hPa 0,0 l/m 2 min 0 min 533 W/m 10,5 km/h (2 Bft) 89,36 %
22.08.2017 10:36 20,1 C 28,3 C 24,4 C 73 % 0 lf 1020,6 hPa 0,0 l/m 2 min 0 min 539 W/m 12,6 km/h (3 Bft) 89,36 %
22.08.2017 10:38 20,2 C 28,9 C 23,9 C 73 % 0 lf 1020,6 hPa 0,0 l/m 2 min 0 min 554 W/m 14,6 km/h (3 Bft) 87,23 %
22.08.2017 10:40 20,2 C 27,8 C 23,9 C 72 % 0 lf 1020,6 hPa 0,0 l/m 2 min 0 min 564 W/m 12,6 km/h (3 Bft) 89,36 %
22.08.2017 10:42 20,3 C 26,1 C 24,4 C 71 % 0 lf 1020,5 hPa 0,0 l/m 2 min 0 min 711 W/m 12,6 km/h (3 Bft) 89,13 %
22.08.2017 10:44 20,4 C 26,1 C 24,4 C 72 % 0 lf 1020,6 hPa 0,0 l/m 2 min 0 min 612 W/m 14,6 km/h (3 Bft) 89,36 %
22.08.2017 10:46 20,5 C 25,6 C 25,0 C 71 % 0 lf 1020,6 hPa 0,0 l/m 2 min 0 min 580 W/m 14,6 km/h (3 Bft) 89,36 %
22.08.2017 10:48 20,6 C 26,7 C 24,4 C 71 % 0 lf 1020,6 hPa 0,0 l/m 2 min 0 min 560 W/m 4,2 km/h (1 Bft) 93,62 %
22.08.2017 10:50 20,6 C 27,2 C 24,4 C 71 % 0 lf 1020,6 hPa 0,0 l/m 2 min 0 min 567 W/m 14,6 km/h (3 Bft) 91,49 %
22.08.2017 10:52 20,7 C 29,4 C 25,0 C 72 % 0 lf 1020,6 hPa 0,0 l/m 2 min 0 min 600 W/m 12,6 km/h (3 Bft) 84,78 %
22.08.2017 10:54 20,8 C 30,0 C 24,4 C 70 % 0 lf 1020,6 hPa 0,0 l/m 2 min 0 min 602 W/m 14,6 km/h (3 Bft) 85,11 %
22.08.2017 10:56 20,8 C 27,2 C 24,4 C 69 % 0 lf 1020,6 hPa 0,0 l/m 2 min 0 min 606 W/m 10,5 km/h (2 Bft) 93,62 %
22.08.2017 10:58 20,9 C 26,1 C 25,0 C 69 % 0 lf 1020,6 hPa 0,0 l/m 2 min 0 min 602 W/m 10,5 km/h (2 Bft) 89,36 %
22.08.2017 11:00 20,9 C 26,7 C 25,0 C 68 % 0 lf 1020,7 hPa 0,0 l/m 2 min 0 min 574 W/m 6,3 km/h (2 Bft) 87,23 %
22.08.2017 11:02 21,0 C 26,7 C 24,4 C 69 % 0 lf 1020,6 hPa 0,0 l/m 2 min 0 min 528 W/m 10,5 km/h (2 Bft) 87,23 %
22.08.2017 11:04 21,1 C 28,9 C 23,3 C 70 % 0 lf 1020,6 hPa 0,0 l/m 2 min 0 min 497 W/m 10,5 km/h (2 Bft) 91,30 %
22.08.2017 11:06 21,2 C 28,3 C 22,8 C 70 % 0 lf 1020,6 hPa 0,0 l/m 2 min 0 min 614 W/m 12,6 km/h (3 Bft) 91,49 %
22.08.2017 11:08 21,2 C 28,3 C 22,8 C 69 % 0 lf 1020,6 hPa 0,0 l/m 2 min 0 min 641 W/m 14,6 km/h (3 Bft) 89,36 %
22.08.2017 11:10 21,3 C 27,2 C 22,8 C 68 % 0 lf 1020,5 hPa 0,0 l/m 2 min 0 min 609 W/m 14,6 km/h (3 Bft) 93,62 %
22.08.2017 11:12 21,4 C 27,8 C 23,3 C 67 % 0 lf 1020,6 hPa 0,0 l/m 2 min 0 min 798 W/m 14,6 km/h (3 Bft) 87,23 %
22.08.2017 11:14 21,4 C 28,3 C 23,9 C 67 % 0 lf 1020,5 hPa 0,0 l/m 2 min 0 min 889 W/m 10,5 km/h (2 Bft) 93,62 %
22.08.2017 11:16 21,5 C 27,8 C 25,0 C 68 % 0 lf 1020,5 hPa 0,0 l/m 2 min 0 min 885 W/m 10,5 km/h (2 Bft) 86,96 %
22.08.2017 11:18 21,6 C 28,3 C 25,6 C 68 % 0 lf 1020,5 hPa 0,0 l/m 2 min 0 min 705 W/m 12,6 km/h (3 Bft) 91,49 %
22.08.2017 11:20 21,6 C 28,3 C 25,6 C 68 % 0 lf 1020,5 hPa 0,0 l/m 2 min 0 min 639 W/m 12,6 km/h (3 Bft) 91,49 %
22.08.2017 11:22 21,7 C 28,3 C 25,6 C 67 % 0 lf 1020,5 hPa 0,0 l/m 2 min 0 min 646 W/m 10,5 km/h (2 Bft) 91,49 %
22.08.2017 11:24 21,7 C 29,4 C 25,6 C 66 % 0 lf 1020,5 hPa 0,0 l/m 2 min 0 min 645 W/m 14,6 km/h (3 Bft) 93,62 %
22.08.2017 11:26 21,8 C 28,3 C 25,6 C 66 % 0 lf 1020,5 hPa 0,0 l/m 2 min 0 min 615 W/m 12,6 km/h (3 Bft) 89,36 %
22.08.2017 11:28 21,9 C 28,3 C 26,1 C 66 % 0 lf 1020,5 hPa 0,0 l/m 2 min 0 min 567 W/m 18,8 km/h (3 Bft) 86,96 %
22.08.2017 11:30 21,9 C 26,7 C 26,1 C 64 % 0 lf 1020,5 hPa 0,0 l/m 2 min 0 min 543 W/m 12,6 km/h (3 Bft) 97,87 %
22.08.2017 11:32 22,0 C 26,7 C 26,1 C 64 % 0 lf 1020,5 hPa 0,0 l/m 2 min 0 min 550 W/m 12,6 km/h (3 Bft) 95,74 %
22.08.2017 11:34 22,0 C 28,9 C 26,1 C 66 % 0 lf 1020,6 hPa 0,0 l/m 2 min 0 min 599 W/m 14,6 km/h (3 Bft) 95,74 %
22.08.2017 11:36 22,1 C 28,9 C 25,6 C 65 % 0 lf 1020,5 hPa 0,0 l/m 2 min 0 min 631 W/m 16,7 km/h (3 Bft) 97,87 %
22.08.2017 11:38 22,1 C 28,3 C 25,6 C 63 % 0 lf 1020,5 hPa 0,0 l/m 2 min 0 min 641 W/m 12,6 km/h (3 Bft) 97,87 %
22.08.2017 11:40 22,2 C 27,8 C 25,6 C 63 % 0 lf 1020,5 hPa 0,0 l/m 2 min 0 min 795 W/m 16,7 km/h (3 Bft) 97,83 %
22.08.2017 11:42 22,2 C 29,4 C 26,1 C 64 % 0 lf 1020,5 hPa 0,0 l/m 2 min 0 min 913 W/m 12,6 km/h (3 Bft) 95,74 %
22.08.2017 11:44 22,3 C 28,9 C 27,2 C 64 % 0 lf 1020,5 hPa 0,0 l/m 2 min 0 min 918 W/m 12,6 km/h (3 Bft) 97,87 %
22.08.2017 11:46 22,3 C 29,4 C 27,2 C 64 % 0 lf 1020,5 hPa 0,0 l/m 2 min 0 min 908 W/m 14,6 km/h (3 Bft) 100,00 %
22.08.2017 11:48 22,4 C 30,6 C 27,2 C 66 % 0 lf 1020,5 hPa 0,0 l/m 2 min 0 min 728 W/m 6,3 km/h (2 Bft) 97,87 %
22.08.2017 11:50 22,6 C 30,0 C 27,8 C 64 % 0 lf 1020,5 hPa 0,0 l/m 2 min 0 min 678 W/m 10,5 km/h (2 Bft) 97,87 %
22.08.2017 11:52 22,6 C 30,6 C 28,3 C 66 % 0 lf 1020,5 hPa 0,0 l/m 2 min 0 min 853 W/m 14,6 km/h (3 Bft) 97,83 %
22.08.2017 11:54 22,7 C 29,4 C 27,8 C 63 % 0 lf 1020,6 hPa 0,0 l/m 2 min 0 min 742 W/m 14,6 km/h (3 Bft) 95,74 %
22.08.2017 11:56 22,8 C 30,0 C 28,3 C 64 % 0 lf 1020,5 hPa 0,0 l/m 2 min 0 min 744 W/m 16,7 km/h (3 Bft) 95,74 %
22.08.2017 11:58 22,8 C 28,3 C 28,3 C 62 % 0 lf 1020,6 hPa 0,0 l/m 2 min 0 min 747 W/m 14,6 km/h (3 Bft) 93,62 %
22.08.2017 12:00 22,9 C 28,3 C 27,8 C 61 % 0 lf 1020,5 hPa 0,0 l/m 2 min 0 min 749 W/m 12,6 km/h (3 Bft) 95,74 %
22.08.2017 12:02 22,9 C 29,4 C 27,8 C 62 % 0 lf 1020,6 hPa 0,0 l/m 2 min 0 min 989 W/m 10,5 km/h (2 Bft) 97,83 %
22.08.2017 12:04 23,1 C 31,1 C 28,3 C 63 % 0 lf 1020,5 hPa 0,0 l/m 2 min 0 min 811 W/m 14,6 km/h (3 Bft) 95,74 %
22.08.2017 12:08 23,2 C 33,3 C 28,3 C 62 % 0 lf 1020,5 hPa 0,0 l/m 0 min 0 min 351 W/m 8,4 km/h (2 Bft) 94,79 %
22.08.2017 12:10 23,3 C 29,4 C 28,9 C 61 % 0 lf 1020,5 hPa 0,0 l/m 2 min 0 min 404 W/m 18,8 km/h (3 Bft) 95,74 %
22.08.2017 12:12 23,3 C 29,4 C 28,9 C 61 % 0 lf 1020,5 hPa 0,0 l/m 2 min 0 min 725 W/m 18,8 km/h (3 Bft) 95,74 %
22.08.2017 12:14 23,4 C 29,4 C 28,9 C 61 % 0 lf 1020,4 hPa 0,0 l/m 2 min 0 min 1001 W/m 12,6 km/h (3 Bft) 95,65 %
22.08.2017 12:16 23,4 C 28,3 C 28,9 C 61 % 0 lf 1020,5 hPa 0,0 l/m 2 min 0 min 766 W/m 23,0 km/h (4 Bft) 95,74 %
22.08.2017 12:18 23,4 C 28,9 C 27,8 C 61 % 0 lf 1020,5 hPa 0,0 l/m 2 min 0 min 768 W/m 16,7 km/h (3 Bft) 97,87 %
22.08.2017 12:20 23,5 C 27,8 C 27,8 C 61 % 0 lf 1020,4 hPa 0,0 l/m 2 min 0 min 770 W/m 14,6 km/h (3 Bft) 95,74 %
22.08.2017 12:22 23,5 C 28,3 C 27,8 C 60 % 0 lf 1020,4 hPa 0,0 l/m 2 min 0 min 771 W/m 10,5 km/h (2 Bft) 97,96 %
22.08.2017 12:24 23,5 C 28,3 C 27,2 C 61 % 0 lf 1020,4 hPa 0,0 l/m 2 min 0 min 773 W/m 16,7 km/h (3 Bft) 95,65 %
22.08.2017 12:26 23,5 C 28,3 C 27,2 C 60 % 0 lf 1020,4 hPa 0,0 l/m 2 min 0 min 775 W/m 14,6 km/h (3 Bft) 95,74 %
22.08.2017 12:28 23,5 C 27,2 C 27,2 C 59 % 0 lf 1020,3 hPa 0,0 l/m 2 min 0 min 777 W/m 14,6 km/h (3 Bft) 97,87 %
22.08.2017 12:30 23,5 C 30,0 C 26,7 C 60 % 0 lf 1020,3 hPa 0,0 l/m 2 min 0 min 778 W/m 12,6 km/h (3 Bft) 95,74 %
22.08.2017 12:32 23,5 C 30,0 C 26,7 C 60 % 0 lf 1020,3 hPa 0,0 l/m 2 min 0 min 780 W/m 14,6 km/h (3 Bft) 97,87 %
22.08.2017 12:34 23,6 C 31,1 C 26,1 C 61 % 0 lf 1020,3 hPa 0,0 l/m 2 min 0 min 781 W/m 16,7 km/h (3 Bft) 93,62 %
22.08.2017 12:36 23,7 C 31,1 C 25,6 C 59 % 0 lf 1020,3 hPa 0,0 l/m 2 min 0 min 783 W/m 16,7 km/h (3 Bft) 95,65 %
22.08.2017 12:38 23,7 C 31,7 C 25,0 C 60 % 0 lf 1020,1 hPa 0,0 l/m 2 min 0 min 784 W/m 18,8 km/h (3 Bft) 95,74 %
22.08.2017 12:40 23,8 C 30,6 C 25,0 C 58 % 0 lf 1020,1 hPa 0,0 l/m 2 min 0 min 786 W/m 14,6 km/h (3 Bft) 97,87 %
22.08.2017 12:42 23,9 C 30,0 C 25,0 C 58 % 0 lf 1020,1 hPa 0,0 l/m 2 min 0 min 787 W/m 12,6 km/h (3 Bft) 95,74 %
22.08.2017 12:44 23,9 C 30,0 C 25,6 C 59 % 0 lf 1020,1 hPa 0,0 l/m 2 min 0 min 788 W/m 10,5 km/h (2 Bft) 97,87 %
22.08.2017 12:46 24,0 C 30,0 C 25,0 C 58 % 0 lf 1020,1 hPa 0,0 l/m 2 min 0 min 1050 W/m 10,5 km/h (2 Bft) 95,74 %
22.08.2017 12:48 24,1 C 29,4 C 24,4 C 58 % 0 lf 1020,1 hPa 0,0 l/m 2 min 0 min 791 W/m 14,6 km/h (3 Bft) 97,83 %
22.08.2017 12:50 24,1 C 30,0 C 24,4 C 59 % 0 lf 1020,0 hPa 0,0 l/m 2 min 0 min 792 W/m 10,5 km/h (2 Bft) 91,49 %
22.08.2017 12:52 24,1 C 29,4 C 24,4 C 58 % 0 lf 1020,0 hPa 0,0 l/m 2 min 0 min 793 W/m 14,6 km/h (3 Bft) 95,74 %
22.08.2017 12:54 24,1 C 29,4 C 25,0 C 58 % 0 lf 1020,0 hPa 0,0 l/m 2 min 0 min 794 W/m 10,5 km/h (2 Bft) 87,23 %
22.08.2017 12:56 24,2 C 30,6 C 25,0 C 59 % 0 lf 1019,9 hPa 0,0 l/m 2 min 0 min 795 W/m 12,6 km/h (3 Bft) 95,74 %
22.08.2017 12:58 24,2 C 31,1 C 25,0 C 57 % 0 lf 1020,0 hPa 0,0 l/m 2 min 0 min 796 W/m 16,7 km/h (3 Bft) 95,74 %
22.08.2017 13:00 24,1 C 32,8 C 25,6 C 57 % 0 lf 1019,9 hPa 0,0 l/m 2 min 0 min 797 W/m 14,6 km/h (3 Bft) 95,65 %
22.08.2017 13:02 24,1 C 32,8 C 26,1 C 57 % 0 lf 1020,0 hPa 0,0 l/m 2 min 0 min 798 W/m 14,6 km/h (3 Bft) 93,62 %
22.08.2017 13:04 24,2 C 30,6 C 26,7 C 57 % 0 lf 1020,0 hPa 0,0 l/m 2 min 0 min 799 W/m 16,7 km/h (3 Bft) 89,36 %
22.08.2017 13:06 24,2 C 31,1 C 27,2 C 58 % 0 lf 1019,9 hPa 0,0 l/m 2 min 0 min 799 W/m 14,6 km/h (3 Bft) 93,62 %
22.08.2017 13:08 24,2 C 31,1 C 26,1 C 58 % 0 lf 1019,9 hPa 0,0 l/m 2 min 0 min 800 W/m 12,6 km/h (3 Bft) 89,36 %
22.08.2017 13:10 24,3 C 32,8 C 26,1 C 58 % 0 lf 1019,9 hPa 0,0 l/m 2 min 0 min 801 W/m 14,6 km/h (3 Bft) 93,62 %
22.08.2017 13:12 24,3 C 30,0 C 25,6 C 56 % 0 lf 1019,9 hPa 0,0 l/m 2 min 0 min 801 W/m 16,7 km/h (3 Bft) 91,30 %
22.08.2017 13:14 24,4 C 30,0 C 25,6 C 56 % 0 lf 1019,9 hPa 0,0 l/m 2 min 0 min 802 W/m 16,7 km/h (3 Bft) 95,74 %
22.08.2017 13:16 24,4 C 29,4 C 24,4 C 55 % 0 lf 1019,8 hPa 0,0 l/m 2 min 0 min 736 W/m 20,9 km/h (4 Bft) 91,49 %
22.08.2017 13:18 24,4 C 30,0 C 24,4 C 55 % 0 lf 1019,8 hPa 0,0 l/m 2 min 0 min 751 W/m 14,6 km/h (3 Bft) 91,49 %
22.08.2017 13:20 24,4 C 29,4 C 24,4 C 55 % 0 lf 1019,8 hPa 0,0 l/m 2 min 0 min 701 W/m 14,6 km/h (3 Bft) 91,49 %
22.08.2017 13:22 24,5 C 28,3 C 24,4 C 55 % 0 lf 1019,8 hPa 0,0 l/m 2 min 0 min 585 W/m 14,6 km/h (3 Bft) 91,49 %
22.08.2017 13:24 24,5 C 27,8 C 24,4 C 55 % 0 lf 1019,7 hPa 0,0 l/m 2 min 0 min 490 W/m 18,8 km/h (3 Bft) 91,30 %
22.08.2017 13:26 24,5 C 27,2 C 23,9 C 55 % 0 lf 1019,7 hPa 0,0 l/m 2 min 0 min 485 W/m 16,7 km/h (3 Bft) 89,36 %
22.08.2017 13:28 24,5 C 29,4 C 24,4 C 56 % 0 lf 1019,7 hPa 0,0 l/m 2 min 0 min 485 W/m 12,6 km/h (3 Bft) 91,49 %
22.08.2017 13:30 24,6 C 29,4 C 25,0 C 56 % 0 lf 1019,7 hPa 0,0 l/m 2 min 0 min 482 W/m 16,7 km/h (3 Bft) 91,49 %
22.08.2017 13:32 24,6 C 28,9 C 24,4 C 55 % 0 lf 1019,7 hPa 0,0 l/m 2 min 0 min 469 W/m 18,8 km/h (3 Bft) 95,74 %
22.08.2017 13:34 24,6 C 28,3 C 24,4 C 54 % 0 lf 1019,6 hPa 0,0 l/m 2 min 0 min 570 W/m 14,6 km/h (3 Bft) 84,78 %
22.08.2017 13:36 24,5 C 27,2 C 23,9 C 54 % 0 lf 1019,6 hPa 0,0 l/m 2 min 0 min 563 W/m 8,4 km/h (2 Bft) 93,62 %
22.08.2017 13:38 24,5 C 28,3 C 23,9 C 54 % 0 lf 1019,7 hPa 0,0 l/m 2 min 0 min 518 W/m 8,4 km/h (2 Bft) 89,36 %
22.08.2017 13:40 24,6 C 30,0 C 23,9 C 55 % 0 lf 1019,6 hPa 0,0 l/m 2 min 0 min 775 W/m 14,6 km/h (3 Bft) 95,74 %
22.08.2017 13:42 24,6 C 29,4 C 24,4 C 55 % 0 lf 1019,7 hPa 0,0 l/m 2 min 0 min 852 W/m 6,3 km/h (2 Bft) 97,87 %
22.08.2017 13:44 24,6 C 31,1 C 25,0 C 55 % 0 lf 1019,6 hPa 0,0 l/m 2 min 0 min 884 W/m 10,5 km/h (2 Bft) 91,49 %
22.08.2017 13:46 24,7 C 32,2 C 25,0 C 55 % 0 lf 1019,5 hPa 0,0 l/m 2 min 0 min 892 W/m 12,6 km/h (3 Bft) 93,48 %
22.08.2017 13:48 24,7 C 32,8 C 25,6 C 56 % 0 lf 1019,5 hPa 0,0 l/m 2 min 0 min 881 W/m 12,6 km/h (3 Bft) 95,74 %
22.08.2017 13:50 24,8 C 32,2 C 25,6 C 54 % 0 lf 1019,5 hPa 0,0 l/m 2 min 0 min 779 W/m 16,7 km/h (3 Bft) 89,36 %
22.08.2017 13:52 24,9 C 30,0 C 25,0 C 54 % 0 lf 1019,6 hPa 0,0 l/m 2 min 0 min 447 W/m 23,0 km/h (4 Bft) 93,62 %
22.08.2017 13:54 24,9 C 30,0 C 25,0 C 54 % 0 lf 1019,5 hPa 0,0 l/m 2 min 0 min 441 W/m 12,6 km/h (3 Bft) 95,74 %
22.08.2017 13:56 24,9 C 30,6 C 25,0 C 54 % 0 lf 1019,5 hPa 0,0 l/m 2 min 0 min 549 W/m 12,6 km/h (3 Bft) 87,23 %
22.08.2017 13:58 24,9 C 29,4 C 25,6 C 54 % 0 lf 1019,4 hPa 0,0 l/m 2 min 0 min 822 W/m 8,4 km/h (2 Bft) 95,65 %
22.08.2017 14:00 24,9 C 28,3 C 25,6 C 54 % 0 lf 1019,5 hPa 0,0 l/m 2 min 0 min 876 W/m 20,9 km/h (4 Bft) 93,62 %
22.08.2017 14:02 24,9 C 31,1 C 25,6 C 57 % 0 lf 1019,4 hPa 0,0 l/m 2 min 0 min 801 W/m 10,5 km/h (2 Bft) 93,62 %
22.08.2017 14:04 25,0 C 30,6 C 25,6 C 55 % 0 lf 1019,4 hPa 0,0 l/m 2 min 0 min 801 W/m 20,9 km/h (4 Bft) 91,49 %
22.08.2017 14:06 25,0 C 30,0 C 25,6 C 54 % 0 lf 1019,5 hPa 0,0 l/m 2 min 0 min 800 W/m 18,8 km/h (3 Bft) 93,62 %
22.08.2017 14:08 25,0 C 29,4 C 25,6 C 53 % 0 lf 1019,4 hPa 0,0 l/m 2 min 0 min 799 W/m 14,6 km/h (3 Bft) 93,62 %
22.08.2017 14:10 24,9 C 30,6 C 25,0 C 53 % 0 lf 1019,5 hPa 0,0 l/m 2 min 0 min 798 W/m 12,6 km/h (3 Bft) 91,30 %
22.08.2017 14:12 24,9 C 30,0 C 25,0 C 53 % 0 lf 1019,4 hPa 0,0 l/m 2 min 0 min 798 W/m 10,5 km/h (2 Bft) 89,36 %
22.08.2017 14:14 25,0 C 32,2 C 25,6 C 55 % 0 lf 1019,4 hPa 0,0 l/m 2 min 0 min 797 W/m 10,5 km/h (2 Bft) 91,49 %
22.08.2017 14:16 25,1 C 30,6 C 25,0 C 54 % 0 lf 1019,5 hPa 0,0 l/m 2 min 0 min 796 W/m 16,7 km/h (3 Bft) 91,49 %
22.08.2017 14:18 25,1 C 28,9 C 24,4 C 55 % 0 lf 1019,5 hPa 0,0 l/m 2 min 0 min 708 W/m 18,8 km/h (3 Bft) 91,49 %
22.08.2017 14:20 25,0 C 30,0 C 24,4 C 54 % 0 lf 1019,4 hPa 0,0 l/m 2 min 0 min 744 W/m 16,7 km/h (3 Bft) 93,62 %
22.08.2017 14:22 25,1 C 32,2 C 25,0 C 54 % 0 lf 1019,4 hPa 0,0 l/m 2 min 0 min 826 W/m 6,3 km/h (2 Bft) 97,83 %
22.08.2017 14:24 25,0 C 31,1 C 24,4 C 53 % 0 lf 1019,4 hPa 0,0 l/m 2 min 0 min 811 W/m 14,6 km/h (3 Bft) 93,62 %
22.08.2017 14:26 25,0 C 30,6 C 24,4 C 53 % 0 lf 1019,4 hPa 0,0 l/m 2 min 0 min 807 W/m 16,7 km/h (3 Bft) 95,74 %
22.08.2017 14:28 25,1 C 31,1 C 25,6 C 54 % 0 lf 1019,4 hPa 0,0 l/m 2 min 0 min 806 W/m 16,7 km/h (3 Bft) 97,87 %
22.08.2017 14:30 25,1 C 31,1 C 26,7 C 52 % 0 lf 1019,4 hPa 0,0 l/m 2 min 0 min 818 W/m 10,5 km/h (2 Bft) 93,62 %
22.08.2017 14:32 25,1 C 33,3 C 28,3 C 53 % 0 lf 1019,4 hPa 0,0 l/m 2 min 0 min 825 W/m 6,3 km/h (2 Bft) 91,49 %
22.08.2017 14:34 25,1 C 33,9 C 29,4 C 55 % 0 lf 1019,3 hPa 0,0 l/m 2 min 0 min 825 W/m 6,3 km/h (2 Bft) 95,65 %
22.08.2017 14:36 25,2 C 34,4 C 31,1 C 55 % 0 lf 1019,3 hPa 0,0 l/m 2 min 0 min 824 W/m 12,6 km/h (3 Bft) 95,74 %
22.08.2017 14:38 25,3 C 32,2 C 31,1 C 53 % 0 lf 1019,3 hPa 0,0 l/m 2 min 0 min 966 W/m 16,7 km/h (3 Bft) 91,49 %
22.08.2017 14:40 25,4 C 33,3 C 31,1 C 53 % 0 lf 1019,4 hPa 0,0 l/m 2 min 0 min 781 W/m 14,6 km/h (3 Bft) 91,49 %
22.08.2017 14:42 25,4 C 32,8 C 31,7 C 53 % 0 lf 1019,3 hPa 0,0 l/m 2 min 0 min 779 W/m 25,1 km/h (4 Bft) 93,62 %
22.08.2017 14:44 25,4 C 32,2 C 31,7 C 53 % 0 lf 1019,3 hPa 0,0 l/m 2 min 0 min 842 W/m 20,9 km/h (4 Bft) 97,87 %
22.08.2017 14:46 25,4 C 32,8 C 32,2 C 53 % 0 lf 1019,3 hPa 0,0 l/m 2 min 0 min 1006 W/m 18,8 km/h (3 Bft) 97,83 %
22.08.2017 14:48 25,4 C 31,1 C 32,2 C 52 % 0 lf 1019,4 hPa 0,0 l/m 2 min 0 min 774 W/m 14,6 km/h (3 Bft) 95,74 %
22.08.2017 14:50 25,5 C 32,2 C 32,2 C 52 % 0 lf 1019,3 hPa 0,0 l/m 2 min 0 min 773 W/m 18,8 km/h (3 Bft) 97,87 %
22.08.2017 14:52 25,5 C 31,1 C 32,8 C 52 % 0 lf 1019,3 hPa 0,0 l/m 2 min 0 min 771 W/m 16,7 km/h (3 Bft) 92,86 %
22.08.2017 14:54 25,6 C 32,8 C 33,3 C 53 % 0 lf 1019,3 hPa 0,0 l/m 2 min 0 min 769 W/m 16,7 km/h (3 Bft) 95,74 %
22.08.2017 14:56 25,6 C 31,7 C 31,7 C 51 % 0 lf 1019,3 hPa 0,0 l/m 2 min 0 min 728 W/m 10,5 km/h (2 Bft) 93,75 %
22.08.2017 14:58 25,6 C 31,1 C 31,7 C 51 % 0 lf 1019,2 hPa 0,0 l/m 2 min 0 min 589 W/m 10,5 km/h (2 Bft) 89,13 %
22.08.2017 15:00 25,6 C 30,6 C 32,8 C 51 % 0 lf 1019,2 hPa 0,0 l/m 2 min 0 min 646 W/m 10,5 km/h (2 Bft) 95,74 %
22.08.2017 15:02 25,6 C 30,6 C 32,8 C 51 % 0 lf 1019,2 hPa 0,0 l/m 2 min 0 min 812 W/m 12,6 km/h (3 Bft) 93,62 %
22.08.2017 15:04 25,6 C 30,0 C 32,8 C 51 % 0 lf 1019,2 hPa 0,0 l/m 2 min 0 min 810 W/m 8,4 km/h (2 Bft) 97,87 %
22.08.2017 15:06 25,5 C 30,6 C 33,3 C 51 % 0 lf 1019,2 hPa 0,0 l/m 2 min 0 min 938 W/m 6,3 km/h (2 Bft) 93,62 %
22.08.2017 15:08 25,5 C 30,6 C 33,3 C 52 % 0 lf 1019,2 hPa 0,0 l/m 2 min 0 min 1000 W/m 14,6 km/h (3 Bft) 95,74 %
22.08.2017 15:10 25,5 C 31,1 C 33,3 C 53 % 0 lf 1019,1 hPa 0,0 l/m 2 min 0 min 944 W/m 16,7 km/h (3 Bft) 93,48 %
22.08.2017 15:12 25,4 C 31,7 C 33,9 C 52 % 0 lf 1019,2 hPa 0,0 l/m 2 min 0 min 751 W/m 10,5 km/h (2 Bft) 95,74 %
22.08.2017 15:14 25,5 C 32,2 C 33,9 C 51 % 0 lf 1019,1 hPa 0,0 l/m 2 min 0 min 748 W/m 8,4 km/h (2 Bft) 93,62 %
22.08.2017 15:16 25,6 C 33,9 C 34,4 C 52 % 0 lf 1019,1 hPa 0,0 l/m 2 min 0 min 746 W/m 10,5 km/h (2 Bft) 95,74 %
22.08.2017 15:18 25,6 C 33,3 C 35,0 C 51 % 0 lf 1019,1 hPa 0,0 l/m 2 min 0 min 744 W/m 6,3 km/h (2 Bft) 95,74 %
22.08.2017 15:20 25,7 C 32,8 C 35,0 C 52 % 0 lf 1019,1 hPa 0,0 l/m 2 min 0 min 741 W/m 12,6 km/h (3 Bft) 95,74 %
22.08.2017 15:22 25,7 C 32,2 C 35,0 C 52 % 0 lf 1019,1 hPa 0,0 l/m 2 min 0 min 831 W/m 18,8 km/h (3 Bft) 91,30 %
22.08.2017 15:24 25,8 C 31,7 C 33,9 C 52 % 0 lf 1019,1 hPa 0,0 l/m 2 min 0 min 736 W/m 20,9 km/h (4 Bft) 95,74 %
22.08.2017 15:26 25,8 C 31,1 C 33,9 C 52 % 0 lf 1019,1 hPa 0,0 l/m 2 min 0 min 734 W/m 14,6 km/h (3 Bft) 89,36 %
22.08.2017 15:28 25,9 C 31,1 C 32,8 C 51 % 0 lf 1019,1 hPa 0,0 l/m 2 min 0 min 731 W/m 12,6 km/h (3 Bft) 89,36 %
22.08.2017 15:30 25,9 C 30,6 C 30,6 C 52 % 0 lf 1019,1 hPa 0,0 l/m 2 min 0 min 728 W/m 6,3 km/h (2 Bft) 97,87 %
22.08.2017 15:32 25,9 C 32,2 C 28,3 C 51 % 0 lf 1019,2 hPa 0,0 l/m 2 min 0 min 726 W/m 20,9 km/h (4 Bft) 89,36 %
22.08.2017 15:34 25,9 C 32,2 C 26,7 C 51 % 0 lf 1019,1 hPa 0,0 l/m 2 min 0 min 723 W/m 20,9 km/h (4 Bft) 93,48 %
22.08.2017 15:36 25,9 C 32,8 C 25,6 C 52 % 0 lf 1019,1 hPa 0,0 l/m 2 min 0 min 720 W/m 10,5 km/h (2 Bft) 91,49 %
22.08.2017 15:38 25,9 C 32,8 C 25,6 C 51 % 0 lf 1019,1 hPa 0,0 l/m 2 min 0 min 718 W/m 12,6 km/h (3 Bft) 95,74 %
22.08.2017 15:40 25,9 C 33,3 C 25,6 C 51 % 0 lf 1019,1 hPa 0,0 l/m 2 min 0 min 742 W/m 8,4 km/h (2 Bft) 91,49 %
22.08.2017 15:42 25,9 C 33,9 C 25,6 C 50 % 0 lf 1019,1 hPa 0,0 l/m 2 min 0 min 739 W/m 12,6 km/h (3 Bft) 95,74 %
22.08.2017 15:44 25,8 C 32,2 C 25,0 C 51 % 0 lf 1019,1 hPa 0,0 l/m 2 min 0 min 738 W/m 10,5 km/h (2 Bft) 97,87 %
22.08.2017 15:46 25,8 C 31,7 C 25,6 C 52 % 0 lf 1019,1 hPa 0,0 l/m 2 min 0 min 739 W/m 20,9 km/h (4 Bft) 93,48 %
22.08.2017 15:48 25,8 C 30,6 C 26,1 C 52 % 0 lf 1019,1 hPa 0,0 l/m 2 min 0 min 733 W/m 18,8 km/h (3 Bft) 91,49 %
22.08.2017 15:50 25,8 C 31,1 C 26,1 C 52 % 0 lf 1019,1 hPa 0,0 l/m 2 min 0 min 700 W/m 14,6 km/h (3 Bft) 93,62 %
22.08.2017 15:52 25,8 C 31,1 C 26,7 C 52 % 0 lf 1019,1 hPa 0,0 l/m 2 min 0 min 697 W/m 14,6 km/h (3 Bft) 93,62 %
22.08.2017 15:54 25,8 C 31,7 C 27,2 C 51 % 0 lf 1019,1 hPa 0,0 l/m 2 min 0 min 694 W/m 12,6 km/h (3 Bft) 91,49 %
22.08.2017 15:56 25,8 C 31,7 C 27,2 C 51 % 0 lf 1019,1 hPa 0,0 l/m 2 min 0 min 690 W/m 12,6 km/h (3 Bft) 93,62 %
22.08.2017 15:58 25,7 C 30,6 C 25,6 C 49 % 0 lf 1019,1 hPa 0,0 l/m 2 min 0 min 687 W/m 10,5 km/h (2 Bft) 95,65 %
22.08.2017 16:00 25,7 C 31,7 C 25,0 C 50 % 0 lf 1019,0 hPa 0,0 l/m 2 min 0 min 684 W/m 12,6 km/h (3 Bft) 93,62 %
22.08.2017 16:02 25,7 C 31,1 C 25,0 C 51 % 0 lf 1019,0 hPa 0,0 l/m 2 min 0 min 681 W/m 16,7 km/h (3 Bft) 91,49 %
22.08.2017 16:04 25,7 C 30,6 C 25,6 C 50 % 0 lf 1018,9 hPa 0,0 l/m 2 min 0 min 677 W/m 16,7 km/h (3 Bft) 93,62 %
22.08.2017 16:06 25,7 C 31,1 C 25,6 C 51 % 0 lf 1019,0 hPa 0,0 l/m 2 min 0 min 674 W/m 16,7 km/h (3 Bft) 91,49 %
22.08.2017 16:08 25,7 C 31,1 C 25,6 C 50 % 0 lf 1019,0 hPa 0,0 l/m 2 min 0 min 671 W/m 12,6 km/h (3 Bft) 95,74 %
22.08.2017 16:10 25,7 C 31,7 C 25,0 C 50 % 0 lf 1018,9 hPa 0,0 l/m 2 min 0 min 667 W/m 8,4 km/h (2 Bft) 93,48 %
22.08.2017 16:12 25,6 C 31,7 C 24,4 C 49 % 0 lf 1018,8 hPa 0,0 l/m 2 min 0 min 664 W/m 6,3 km/h (2 Bft) 89,36 %
22.08.2017 16:14 25,6 C 31,7 C 24,4 C 50 % 0 lf 1018,7 hPa 0,0 l/m 2 min 0 min 660 W/m 10,5 km/h (2 Bft) 95,74 %
22.08.2017 16:16 25,6 C 31,1 C 25,0 C 50 % 0 lf 1018,8 hPa 0,0 l/m 2 min 0 min 656 W/m 14,6 km/h (3 Bft) 97,87 %
22.08.2017 16:18 25,6 C 31,1 C 25,0 C 51 % 0 lf 1018,8 hPa 0,0 l/m 2 min 0 min 653 W/m 14,6 km/h (3 Bft) 97,87 %
22.08.2017 16:20 25,6 C 30,6 C 25,0 C 51 % 0 lf 1018,7 hPa 0,0 l/m 2 min 0 min 649 W/m 10,5 km/h (2 Bft) 93,62 %
22.08.2017 16:22 25,6 C 30,0 C 25,0 C 51 % 0 lf 1018,7 hPa 0,0 l/m 2 min 0 min 808 W/m 6,3 km/h (2 Bft) 93,48 %
22.08.2017 16:24 25,6 C 28,9 C 25,0 C 50 % 0 lf 1018,7 hPa 0,0 l/m 2 min 0 min 599 W/m 14,6 km/h (3 Bft) 95,74 %
22.08.2017 16:26 25,7 C 30,0 C 25,0 C 52 % 0 lf 1018,7 hPa 0,0 l/m 2 min 0 min 599 W/m 14,6 km/h (3 Bft) 91,49 %
22.08.2017 16:28 25,7 C 30,0 C 25,0 C 53 % 0 lf 1018,7 hPa 0,0 l/m 2 min 0 min 625 W/m 16,7 km/h (3 Bft) 97,87 %
22.08.2017 16:30 25,7 C 28,9 C 25,0 C 50 % 0 lf 1018,7 hPa 0,0 l/m 2 min 0 min 621 W/m 23,0 km/h (4 Bft) 97,87 %
22.08.2017 16:32 25,7 C 28,3 C 25,0 C 50 % 0 lf 1018,7 hPa 0,0 l/m 2 min 0 min 612 W/m 12,6 km/h (3 Bft) 97,87 %
22.08.2017 16:34 25,7 C 28,3 C 25,0 C 51 % 0 lf 1018,6 hPa 0,0 l/m 2 min 0 min 591 W/m 16,7 km/h (3 Bft) 100,00 %
22.08.2017 16:36 25,7 C 28,3 C 24,4 C 50 % 0 lf 1018,6 hPa 0,0 l/m 2 min 0 min 594 W/m 14,6 km/h (3 Bft) 95,74 %
22.08.2017 16:38 25,7 C 28,3 C 24,4 C 51 % 0 lf 1018,6 hPa 0,0 l/m 2 min 0 min 573 W/m 12,6 km/h (3 Bft) 97,87 %
22.08.2017 16:40 25,6 C 27,8 C 23,9 C 49 % 0 lf 1018,4 hPa 0,0 l/m 2 min 0 min 552 W/m 10,5 km/h (2 Bft) 91,49 %
22.08.2017 16:42 25,6 C 28,3 C 23,9 C 50 % 0 lf 1018,5 hPa 0,0 l/m 2 min 0 min 532 W/m 4,2 km/h (1 Bft) 100,00 %
22.08.2017 16:44 25,6 C 28,9 C 23,9 C 51 % 0 lf 1018,5 hPa 0,0 l/m 2 min 0 min 531 W/m 6,3 km/h (2 Bft) 97,83 %
22.08.2017 16:46 25,7 C 28,9 C 23,9 C 51 % 0 lf 1018,5 hPa 0,0 l/m 2 min 0 min 541 W/m 10,5 km/h (2 Bft) 95,74 %
22.08.2017 16:48 25,7 C 28,3 C 24,4 C 51 % 0 lf 1018,5 hPa 0,0 l/m 2 min 0 min 538 W/m 14,6 km/h (3 Bft) 95,74 %
22.08.2017 16:50 25,7 C 27,8 C 24,4 C 52 % 0 lf 1018,5 hPa 0,0 l/m 2 min 0 min 538 W/m 16,7 km/h (3 Bft) 95,74 %
22.08.2017 16:52 25,7 C 27,2 C 24,4 C 51 % 0 lf 1018,5 hPa 0,0 l/m 2 min 0 min 544 W/m 12,6 km/h (3 Bft) 93,62 %
22.08.2017 16:54 25,7 C 26,7 C 24,4 C 51 % 0 lf 1018,4 hPa 0,0 l/m 2 min 0 min 539 W/m 12,6 km/h (3 Bft) 93,62 %
22.08.2017 16:56 25,7 C 26,7 C 24,4 C 50 % 0 lf 1018,6 hPa 0,0 l/m 2 min 0 min 529 W/m 14,6 km/h (3 Bft) 93,48 %
22.08.2017 16:58 25,6 C 26,1 C 23,9 C 50 % 0 lf 1018,4 hPa 0,0 l/m 2 min 0 min 515 W/m 16,7 km/h (3 Bft) 91,49 %
22.08.2017 17:00 25,6 C 26,7 C 23,3 C 51 % 0 lf 1018,5 hPa 0,0 l/m 2 min 0 min 514 W/m 6,3 km/h (2 Bft) 89,36 %
22.08.2017 17:02 25,6 C 26,7 C 23,9 C 52 % 0 lf 1018,4 hPa 0,0 l/m 2 min 0 min 532 W/m 16,7 km/h (3 Bft) 89,36 %
22.08.2017 17:04 25,7 C 26,7 C 23,9 C 51 % 0 lf 1018,5 hPa 0,0 l/m 2 min 0 min 544 W/m 10,5 km/h (2 Bft) 93,62 %
22.08.2017 17:06 25,7 C 26,7 C 23,3 C 51 % 0 lf 1018,5 hPa 0,0 l/m 2 min 0 min 534 W/m 14,6 km/h (3 Bft) 89,36 %
22.08.2017 17:08 25,7 C 26,7 C 23,9 C 51 % 0 lf 1018,6 hPa 0,0 l/m 2 min 0 min 527 W/m 18,8 km/h (3 Bft) 91,30 %
22.08.2017 17:10 25,7 C 26,7 C 23,3 C 51 % 0 lf 1018,4 hPa 0,0 l/m 2 min 0 min 523 W/m 16,7 km/h (3 Bft) 89,36 %
22.08.2017 17:12 25,7 C 26,7 C 23,3 C 51 % 0 lf 1018,4 hPa 0,0 l/m 2 min 0 min 518 W/m 16,7 km/h (3 Bft) 85,11 %
22.08.2017 17:14 25,6 C 26,7 C 23,3 C 51 % 0 lf 1018,4 hPa 0,0 l/m 2 min 0 min 497 W/m 14,6 km/h (3 Bft) 89,36 %
22.08.2017 17:16 25,6 C 27,2 C 23,3 C 52 % 0 lf 1018,5 hPa 0,0 l/m 2 min 0 min 485 W/m 10,5 km/h (2 Bft) 89,36 %
22.08.2017 17:18 25,6 C 26,7 C 23,3 C 51 % 0 lf 1018,4 hPa 0,0 l/m 2 min 0 min 437 W/m 18,8 km/h (3 Bft) 89,36 %
22.08.2017 17:20 25,6 C 26,1 C 23,3 C 51 % 0 lf 1018,4 hPa 0,0 l/m 2 min 0 min 404 W/m 14,6 km/h (3 Bft) 93,48 %
22.08.2017 17:22 25,5 C 26,1 C 23,3 C 51 % 0 lf 1018,4 hPa 0,0 l/m 2 min 0 min 425 W/m 14,6 km/h (3 Bft) 93,62 %
22.08.2017 17:24 25,5 C 26,1 C 22,8 C 51 % 0 lf 1018,4 hPa 0,0 l/m 2 min 0 min 416 W/m 12,6 km/h (3 Bft) 91,49 %
22.08.2017 17:26 25,4 C 25,0 C 22,2 C 51 % 0 lf 1018,4 hPa 0,0 l/m 2 min 0 min 353 W/m 18,8 km/h (3 Bft) 91,49 %
22.08.2017 17:28 25,3 C 25,0 C 22,2 C 51 % 0 lf 1018,3 hPa 0,0 l/m 0 min 0 min 149 W/m 10,5 km/h (2 Bft) 85,11 %
22.08.2017 17:30 25,2 C 25,0 C 22,2 C 51 % 0 lf 1018,4 hPa 0,0 l/m 0 min 0 min 226 W/m 12,6 km/h (3 Bft) 89,36 %
22.08.2017 17:32 25,1 C 25,0 C 22,2 C 52 % 0 lf 1018,4 hPa 0,0 l/m 2 min 0 min 267 W/m 16,7 km/h (3 Bft) 86,96 %
22.08.2017 17:34 25,1 C 25,0 C 22,2 C 52 % 0 lf 1018,4 hPa 0,0 l/m 2 min 0 min 319 W/m 14,6 km/h (3 Bft) 91,49 %
22.08.2017 17:36 24,9 C 25,0 C 22,2 C 52 % 0 lf 1018,4 hPa 0,0 l/m 2 min 0 min 400 W/m 14,6 km/h (3 Bft) 91,49 %
22.08.2017 17:38 24,8 C 25,0 C 22,2 C 52 % 0 lf 1018,3 hPa 0,0 l/m 2 min 0 min 410 W/m 10,5 km/h (2 Bft) 91,49 %
22.08.2017 17:40 24,7 C 25,0 C 22,2 C 52 % 0 lf 1018,4 hPa 0,0 l/m 2 min 0 min 385 W/m 8,4 km/h (2 Bft) 89,36 %
22.08.2017 17:42 24,7 C 25,0 C 22,2 C 52 % 0 lf 1018,3 hPa 0,0 l/m 2 min 0 min 394 W/m 14,6 km/h (3 Bft) 93,62 %
22.08.2017 17:44 24,6 C 25,0 C 22,2 C 52 % 0 lf 1018,3 hPa 0,0 l/m 2 min 0 min 395 W/m 16,7 km/h (3 Bft) 91,30 %
22.08.2017 17:46 24,6 C 25,0 C 22,8 C 53 % 0 lf 1018,3 hPa 0,0 l/m 2 min 0 min 396 W/m 14,6 km/h (3 Bft) 95,74 %
22.08.2017 17:48 24,5 C 25,0 C 22,8 C 53 % 0 lf 1018,3 hPa 0,0 l/m 2 min 0 min 385 W/m 16,7 km/h (3 Bft) 93,62 %
22.08.2017 17:50 24,5 C 25,0 C 22,2 C 53 % 0 lf 1018,5 hPa 0,0 l/m 2 min 0 min 370 W/m 10,5 km/h (2 Bft) 97,87 %
22.08.2017 17:52 24,4 C 25,0 C 22,2 C 53 % 0 lf 1018,4 hPa 0,0 l/m 2 min 0 min 369 W/m 20,9 km/h (4 Bft) 92,00 %
22.08.2017 17:54 24,4 C 25,0 C 22,2 C 53 % 0 lf 1018,4 hPa 0,0 l/m 2 min 0 min 373 W/m 10,5 km/h (2 Bft) 97,87 %
22.08.2017 17:56 24,4 C 25,0 C 22,2 C 53 % 0 lf 1018,3 hPa 0,0 l/m 2 min 0 min 366 W/m 14,6 km/h (3 Bft) 91,30 %
22.08.2017 17:58 24,4 C 25,0 C 22,2 C 53 % 0 lf 1018,3 hPa 0,0 l/m 2 min 0 min 355 W/m 10,5 km/h (2 Bft) 97,87 %
22.08.2017 18:00 24,4 C 25,0 C 22,2 C 53 % 0 lf 1018,2 hPa 0,0 l/m 2 min 0 min 351 W/m 10,5 km/h (2 Bft) 100,00 %
22.08.2017 18:02 24,4 C 25,0 C 22,8 C 53 % 0 lf 1018,2 hPa 0,0 l/m 2 min 0 min 343 W/m 10,5 km/h (2 Bft) 95,74 %
22.08.2017 18:04 24,4 C 25,0 C 22,2 C 54 % 0 lf 1018,1 hPa 0,0 l/m 2 min 0 min 332 W/m 6,3 km/h (2 Bft) 97,87 %
22.08.2017 18:06 24,4 C 25,0 C 22,2 C 54 % 0 lf 1018,1 hPa 0,0 l/m 2 min 0 min 327 W/m 8,4 km/h (2 Bft) 91,49 %
22.08.2017 18:08 24,4 C 25,0 C 22,2 C 54 % 0 lf 1018,0 hPa 0,0 l/m 2 min 0 min 320 W/m 12,6 km/h (3 Bft) 93,62 %
22.08.2017 18:10 24,3 C 24,4 C 22,2 C 54 % 0 lf 1018,0 hPa 0,0 l/m 2 min 0 min 315 W/m 16,7 km/h (3 Bft) 93,62 %
22.08.2017 18:12 24,3 C 24,4 C 21,7 C 53 % 0 lf 1018,0 hPa 0,0 l/m 2 min 0 min 311 W/m 10,5 km/h (2 Bft) 93,62 %
22.08.2017 18:14 24,3 C 24,4 C 21,7 C 54 % 0 lf 1018,1 hPa 0,0 l/m 2 min 0 min 308 W/m 14,6 km/h (3 Bft) 95,74 %
22.08.2017 18:16 24,3 C 24,4 C 22,2 C 54 % 0 lf 1018,0 hPa 0,0 l/m 2 min 0 min 307 W/m 14,6 km/h (3 Bft) 95,65 %
22.08.2017 18:18 24,2 C 24,4 C 21,7 C 54 % 0 lf 1018,0 hPa 0,0 l/m 2 min 0 min 302 W/m 12,6 km/h (3 Bft) 93,62 %
22.08.2017 18:20 24,2 C 24,4 C 21,7 C 54 % 0 lf 1018,0 hPa 0,0 l/m 2 min 0 min 296 W/m 8,4 km/h (2 Bft) 95,74 %
22.08.2017 18:22 24,2 C 24,4 C 21,7 C 54 % 0 lf 1017,9 hPa 0,0 l/m 2 min 0 min 293 W/m 16,7 km/h (3 Bft) 93,62 %
22.08.2017 18:24 24,2 C 24,4 C 21,7 C 54 % 0 lf 1017,9 hPa 0,0 l/m 2 min 0 min 271 W/m 14,6 km/h (3 Bft) 95,74 %
22.08.2017 18:26 24,2 C 24,4 C 21,7 C 54 % 0 lf 1017,9 hPa 0,0 l/m 2 min 0 min 227 W/m 14,6 km/h (3 Bft) 95,74 %
22.08.2017 18:28 24,1 C 23,9 C 21,7 C 55 % 0 lf 1017,8 hPa 0,0 l/m 2 min 0 min 167 W/m 8,4 km/h (2 Bft) 95,65 %
22.08.2017 18:30 24,1 C 23,9 C 21,7 C 55 % 0 lf 1017,8 hPa 0,0 l/m 2 min 0 min 201 W/m 14,6 km/h (3 Bft) 95,74 %
22.08.2017 18:32 24,1 C 23,9 C 21,7 C 54 % 0 lf 1017,8 hPa 0,0 l/m 0 min 0 min 138 W/m 16,7 km/h (3 Bft) 91,49 %
22.08.2017 18:34 24,1 C 23,9 C 21,7 C 54 % 0 lf 1017,7 hPa 0,0 l/m 0 min 0 min 123 W/m 16,7 km/h (3 Bft) 95,74 %
22.08.2017 18:36 24,0 C 23,9 C 21,7 C 55 % 0 lf 1017,8 hPa 0,0 l/m 0 min 0 min 108 W/m 12,6 km/h (3 Bft) 93,62 %
22.08.2017 18:38 24,0 C 23,3 C 21,7 C 55 % 0 lf 1017,7 hPa 0,0 l/m 0 min 0 min 85 W/m 16,7 km/h (3 Bft) 93,62 %
22.08.2017 18:40 23,9 C 23,3 C 21,1 C 54 % 0 lf 1017,7 hPa 0,0 l/m 0 min 0 min 125 W/m 14,6 km/h (3 Bft) 93,48 %
22.08.2017 18:42 23,9 C 23,3 C 21,1 C 55 % 0 lf 1017,7 hPa 0,0 l/m 0 min 0 min 144 W/m 12,6 km/h (3 Bft) 95,74 %
22.08.2017 18:44 23,9 C 23,3 C 21,1 C 55 % 0 lf 1017,7 hPa 0,0 l/m 0 min 0 min 137 W/m 16,7 km/h (3 Bft) 91,49 %
22.08.2017 18:46 23,8 C 23,3 C 21,1 C 55 % 0 lf 1017,7 hPa 0,0 l/m 0 min 0 min 111 W/m 14,6 km/h (3 Bft) 93,62 %
22.08.2017 18:48 23,8 C 23,3 C 21,1 C 55 % 0 lf 1017,6 hPa 0,0 l/m 0 min 0 min 122 W/m 14,6 km/h (3 Bft) 95,74 %
22.08.2017 18:50 23,7 C 23,3 C 21,1 C 56 % 0 lf 1017,6 hPa 0,0 l/m 0 min 0 min 66 W/m 10,5 km/h (2 Bft) 93,62 %
22.08.2017 18:52 23,7 C 23,3 C 21,1 C 56 % 0 lf 1017,7 hPa 0,0 l/m 0 min 0 min 100 W/m 14,6 km/h (3 Bft) 95,12 %
22.08.2017 18:54 23,7 C 23,3 C 20,6 C 56 % 0 lf 1017,6 hPa 0,0 l/m 0 min 0 min 70 W/m 8,4 km/h (2 Bft) 97,83 %
22.08.2017 18:56 23,6 C 22,8 C 20,6 C 56 % 0 lf 1017,6 hPa 0,0 l/m 0 min 0 min 66 W/m 14,6 km/h (3 Bft) 87,23 %
22.08.2017 18:58 23,6 C 22,8 C 20,6 C 56 % 0 lf 1017,6 hPa 0,0 l/m 0 min 0 min 69 W/m 8,4 km/h (2 Bft) 97,87 %
22.08.2017 19:00 23,5 C 22,8 C 20,6 C 56 % 0 lf 1017,6 hPa 0,0 l/m 0 min 0 min 78 W/m 8,4 km/h (2 Bft) 95,74 %
22.08.2017 19:02 23,5 C 22,8 C 20,6 C 56 % 0 lf 1017,6 hPa 0,0 l/m 0 min 0 min 80 W/m 8,4 km/h (2 Bft) 97,87 %
22.08.2017 19:04 23,4 C 22,8 C 20,6 C 56 % 0 lf 1017,6 hPa 0,0 l/m 0 min 0 min 90 W/m 10,5 km/h (2 Bft) 97,87 %
22.08.2017 19:06 23,4 C 22,8 C 20,6 C 57 % 0 lf 1017,6 hPa 0,0 l/m 2 min 0 min 153 W/m 8,4 km/h (2 Bft) 95,65 %
22.08.2017 19:08 23,3 C 22,8 C 21,1 C 57 % 0 lf 1017,6 hPa 0,0 l/m 2 min 0 min 164 W/m 10,5 km/h (2 Bft) 100,00 %
22.08.2017 19:10 23,3 C 23,3 C 21,1 C 57 % 0 lf 1017,6 hPa 0,0 l/m 2 min 0 min 166 W/m 10,5 km/h (2 Bft) 93,62 %
22.08.2017 19:12 23,3 C 23,3 C 21,1 C 57 % 0 lf 1017,6 hPa 0,0 l/m 2 min 0 min 165 W/m 6,3 km/h (2 Bft) 93,62 %
22.08.2017 19:14 23,3 C 23,3 C 21,1 C 57 % 0 lf 1017,6 hPa 0,0 l/m 2 min 0 min 163 W/m 10,5 km/h (2 Bft) 89,36 %
22.08.2017 19:16 23,2 C 23,3 C 21,1 C 57 % 0 lf 1017,6 hPa 0,0 l/m 2 min 0 min 126 W/m 10,5 km/h (2 Bft) 95,74 %
22.08.2017 19:18 23,2 C 23,3 C 21,7 C 57 % 0 lf 1017,6 hPa 0,0 l/m 2 min 0 min 112 W/m 10,5 km/h (2 Bft) 93,48 %
22.08.2017 19:20 23,2 C 23,3 C 21,7 C 57 % 0 lf 1017,6 hPa 0,0 l/m 2 min 0 min 116 W/m 14,6 km/h (3 Bft) 91,49 %
22.08.2017 19:22 23,2 C 23,3 C 21,7 C 57 % 0 lf 1017,6 hPa 0,0 l/m 2 min 0 min 109 W/m 16,7 km/h (3 Bft) 95,74 %
22.08.2017 19:24 23,2 C 23,3 C 21,7 C 57 % 0 lf 1017,6 hPa 0,0 l/m 2 min 0 min 97 W/m 10,5 km/h (2 Bft) 97,87 %
22.08.2017 19:26 23,1 C 23,3 C 21,7 C 57 % 0 lf 1017,6 hPa 0,0 l/m 2 min 0 min 92 W/m 10,5 km/h (2 Bft) 93,62 %
22.08.2017 19:28 23,1 C 23,3 C 21,1 C 57 % 0 lf 1017,6 hPa 0,0 l/m 2 min 0 min 89 W/m 10,5 km/h (2 Bft) 95,74 %
22.08.2017 19:30 23,1 C 23,3 C 21,1 C 57 % 0 lf 1017,6 hPa 0,0 l/m 2 min 0 min 87 W/m 10,5 km/h (2 Bft) 95,65 %
22.08.2017 19:32 23,1 C 22,8 C 21,1 C 57 % 0 lf 1017,6 hPa 0,0 l/m 0 min 0 min 82 W/m 8,4 km/h (2 Bft) 89,36 %
22.08.2017 19:34 23,1 C 22,8 C 21,1 C 57 % 0 lf 1017,6 hPa 0,0 l/m 2 min 0 min 80 W/m 10,5 km/h (2 Bft) 91,49 %
22.08.2017 19:36 23,1 C 22,8 C 21,1 C 57 % 0 lf 1017,6 hPa 0,0 l/m 2 min 0 min 78 W/m 10,5 km/h (2 Bft) 95,74 %
22.08.2017 19:38 23,1 C 22,8 C 21,1 C 58 % 0 lf 1017,6 hPa 0,0 l/m 2 min 0 min 76 W/m 14,6 km/h (3 Bft) 91,49 %
22.08.2017 19:40 23,0 C 22,8 C 21,1 C 58 % 0 lf 1017,6 hPa 0,0 l/m 2 min 0 min 78 W/m 12,6 km/h (3 Bft) 95,65 %
22.08.2017 19:42 23,0 C 22,8 C 21,1 C 58 % 0 lf 1017,6 hPa 0,0 l/m 2 min 0 min 84 W/m 6,3 km/h (2 Bft) 93,62 %
22.08.2017 19:44 23,0 C 22,8 C 20,6 C 58 % 0 lf 1017,5 hPa 0,0 l/m 2 min 0 min 113 W/m 10,5 km/h (2 Bft) 95,74 %
22.08.2017 19:46 22,9 C 22,2 C 20,6 C 58 % 0 lf 1017,6 hPa 0,0 l/m 2 min 0 min 65 W/m 10,5 km/h (2 Bft) 95,74 %
22.08.2017 19:48 22,9 C 22,2 C 20,6 C 58 % 0 lf 1017,6 hPa 0,0 l/m 0 min 0 min 56 W/m 10,5 km/h (2 Bft) 93,62 %
22.08.2017 19:50 22,9 C 22,2 C 20,6 C 58 % 0 lf 1017,6 hPa 0,0 l/m 0 min 0 min 53 W/m 10,5 km/h (2 Bft) 93,62 %
22.08.2017 19:52 22,9 C 22,2 C 20,0 C 58 % 0 lf 1017,6 hPa 0,0 l/m 0 min 0 min 51 W/m 8,4 km/h (2 Bft) 97,56 %
22.08.2017 19:54 22,8 C 22,2 C 20,0 C 59 % 0 lf 1017,5 hPa 0,0 l/m 0 min 0 min 51 W/m 6,3 km/h (2 Bft) 94,83 %
22.08.2017 19:56 22,8 C 22,2 C 20,0 C 59 % 0 lf 1017,5 hPa 0,0 l/m 2 min 0 min 53 W/m 6,3 km/h (2 Bft) 95,74 %
22.08.2017 19:58 22,8 C 22,2 C 20,0 C 59 % 0 lf 1017,5 hPa 0,0 l/m 2 min 0 min 53 W/m 6,3 km/h (2 Bft) 91,49 %
22.08.2017 20:00 22,7 C 21,7 C 20,0 C 59 % 0 lf 1017,5 hPa 0,0 l/m 2 min 0 min 53 W/m 6,3 km/h (2 Bft) 97,87 %
22.08.2017 20:02 22,7 C 21,7 C 20,0 C 58 % 0 lf 1017,5 hPa 0,0 l/m 2 min 0 min 50 W/m 8,4 km/h (2 Bft) 91,30 %
22.08.2017 20:04 22,7 C 21,7 C 20,0 C 59 % 0 lf 1017,5 hPa 0,0 l/m 2 min 0 min 50 W/m 10,5 km/h (2 Bft) 95,74 %
22.08.2017 20:06 22,6 C 21,7 C 20,0 C 59 % 0 lf 1017,5 hPa 0,0 l/m 2 min 0 min 52 W/m 10,5 km/h (2 Bft) 95,74 %
22.08.2017 20:08 22,6 C 21,7 C 19,4 C 58 % 0 lf 1017,5 hPa 0,0 l/m 2 min 0 min 76 W/m 6,3 km/h (2 Bft) 89,36 %
22.08.2017 20:10 22,6 C 21,7 C 19,4 C 59 % 0 lf 1017,4 hPa 0,0 l/m 2 min 0 min 48 W/m 8,4 km/h (2 Bft) 93,62 %
22.08.2017 20:12 22,5 C 21,1 C 19,4 C 59 % 0 lf 1017,4 hPa 0,0 l/m 2 min 0 min 50 W/m 8,4 km/h (2 Bft) 91,49 %
22.08.2017 20:14 22,5 C 21,1 C 19,4 C 60 % 0 lf 1017,4 hPa 0,0 l/m 2 min 0 min 42 W/m 8,4 km/h (2 Bft) 93,48 %
22.08.2017 20:16 22,4 C 21,1 C 19,4 C 59 % 0 lf 1017,5 hPa 0,0 l/m 2 min 0 min 39 W/m 4,2 km/h (1 Bft) 89,36 %
22.08.2017 20:18 22,4 C 21,1 C 19,4 C 59 % 0 lf 1017,5 hPa 0,0 l/m 2 min 0 min 42 W/m 6,3 km/h (2 Bft) 89,36 %
22.08.2017 20:20 22,4 C 21,1 C 19,4 C 59 % 0 lf 1017,5 hPa 0,0 l/m 2 min 0 min 41 W/m 10,5 km/h (2 Bft) 87,23 %
22.08.2017 20:22 22,3 C 21,1 C 18,9 C 60 % 0 lf 1017,6 hPa 0,0 l/m 2 min 0 min 34 W/m 8,4 km/h (2 Bft) 94,29 %
22.08.2017 20:24 22,3 C 21,1 C 19,4 C 60 % 0 lf 1017,6 hPa 0,0 l/m 2 min 0 min 31 W/m 6,3 km/h (2 Bft) 86,44 %
22.08.2017 20:26 22,2 C 21,1 C 19,4 C 60 % 0 lf 1017,5 hPa 0,0 l/m 2 min 0 min 27 W/m 8,4 km/h (2 Bft) 91,30 %
22.08.2017 20:28 22,2 C 21,1 C 19,4 C 60 % 0 lf 1017,6 hPa 0,0 l/m 2 min 0 min 21 W/m 10,5 km/h (2 Bft) 89,36 %
22.08.2017 20:30 22,2 C 20,6 C 19,4 C 60 % 0 lf 1017,5 hPa 0,0 l/m 0 min 0 min 16 W/m 14,6 km/h (3 Bft) 91,49 %
22.08.2017 20:32 22,1 C 20,6 C 18,9 C 60 % 0 lf 1017,5 hPa 0,0 l/m 0 min 0 min 12 W/m 14,6 km/h (3 Bft) 93,62 %
22.08.2017 20:34 22,1 C 20,6 C 18,9 C 61 % 0 lf 1017,5 hPa 0,0 l/m 0 min 0 min 10 W/m 10,5 km/h (2 Bft) 91,49 %
22.08.2017 20:36 22,0 C 20,6 C 18,9 C 61 % 0 lf 1017,5 hPa 0,0 l/m 0 min 0 min 7 W/m 8,4 km/h (2 Bft) 91,30 %
22.08.2017 20:38 21,9 C 20,0 C 18,9 C 61 % 0 lf 1017,6 hPa 0,0 l/m 0 min 0 min 6 W/m 10,5 km/h (2 Bft) 93,62 %
22.08.2017 20:40 21,9 C 20,0 C 18,9 C 61 % 0 lf 1017,6 hPa 0,0 l/m 0 min 0 min 5 W/m 8,4 km/h (2 Bft) 95,74 %
22.08.2017 20:42 21,9 C 20,0 C 18,3 C 61 % 0 lf 1017,6 hPa 0,0 l/m 0 min 0 min 5 W/m 8,4 km/h (2 Bft) 93,62 %
22.08.2017 20:44 21,8 C 20,0 C 18,3 C 62 % 0 lf 1017,6 hPa 0,0 l/m 0 min 0 min 4 W/m 8,4 km/h (2 Bft) 91,49 %
22.08.2017 20:46 21,8 C 20,0 C 17,8 C 62 % 0 lf 1017,6 hPa 0,0 l/m 0 min 0 min 0 W/m 6,3 km/h (2 Bft) 87,23 %
22.08.2017 20:48 21,7 C 20,0 C 18,3 C 62 % 0 lf 1017,7 hPa 0,0 l/m 0 min 0 min 0 W/m 10,5 km/h (2 Bft) 91,30 %
22.08.2017 20:50 21,7 C 20,0 C 18,3 C 62 % 0 lf 1017,7 hPa 0,0 l/m 0 min 0 min 0 W/m 14,6 km/h (3 Bft) 91,49 %
22.08.2017 20:52 21,6 C 20,0 C 18,3 C 62 % 0 lf 1017,7 hPa 0,0 l/m 0 min 0 min 0 W/m 14,6 km/h (3 Bft) 91,49 %
22.08.2017 20:54 21,6 C 20,0 C 18,3 C 63 % 0 lf 1017,7 hPa 0,0 l/m 0 min 0 min 0 W/m 14,6 km/h (3 Bft) 91,49 %
22.08.2017 20:56 21,4 C 20,0 C 18,3 C 63 % 0 lf 1017,7 hPa 0,0 l/m 0 min 0 min 0 W/m 14,6 km/h (3 Bft) 89,36 %
22.08.2017 20:58 21,4 C 20,0 C 18,3 C 63 % 0 lf 1017,7 hPa 0,0 l/m 0 min 0 min 0 W/m 8,4 km/h (2 Bft) 93,62 %
22.08.2017 21:00 21,3 C 20,0 C 18,3 C 63 % 0 lf 1017,8 hPa 0,0 l/m 0 min 0 min 0 W/m 12,6 km/h (3 Bft) 91,30 %
22.08.2017 21:02 21,3 C 20,0 C 18,3 C 63 % 0 lf 1017,7 hPa 0,0 l/m 0 min 0 min 0 W/m 10,5 km/h (2 Bft) 93,62 %
22.08.2017 21:04 21,2 C 20,0 C 18,3 C 63 % 0 lf 1017,7 hPa 0,0 l/m 0 min 0 min 0 W/m 6,3 km/h (2 Bft) 91,49 %
22.08.2017 21:06 21,2 C 20,0 C 18,3 C 64 % 0 lf 1017,7 hPa 0,0 l/m 0 min 0 min 0 W/m 6,3 km/h (2 Bft) 95,74 %
22.08.2017 21:08 21,1 C 20,0 C 18,3 C 64 % 0 lf 1017,6 hPa 0,0 l/m 0 min 0 min 0 W/m 6,3 km/h (2 Bft) 93,62 %
22.08.2017 21:10 21,1 C 19,4 C 17,8 C 64 % 0 lf 1017,7 hPa 0,0 l/m 0 min 0 min 0 W/m 12,6 km/h (3 Bft) 93,62 %
22.08.2017 21:12 21,1 C 20,0 C 17,8 C 64 % 0 lf 1017,7 hPa 0,0 l/m 0 min 0 min 0 W/m 12,6 km/h (3 Bft) 91,30 %
22.08.2017 21:14 21,0 C 20,0 C 17,8 C 64 % 0 lf 1017,6 hPa 0,0 l/m 0 min 0 min 0 W/m 16,7 km/h (3 Bft) 94,44 %
22.08.2017 21:16 20,9 C 20,0 C 17,8 C 64 % 0 lf 1017,6 hPa 0,0 l/m 0 min 0 min 0 W/m 10,5 km/h (2 Bft) 93,48 %
22.08.2017 21:18 20,9 C 19,4 C 17,8 C 64 % 0 lf 1017,7 hPa 0,0 l/m 0 min 0 min 0 W/m 8,4 km/h (2 Bft) 85,11 %
22.08.2017 21:20 20,8 C 19,4 C 17,8 C 65 % 0 lf 1017,7 hPa 0,0 l/m 0 min 0 min 0 W/m 10,5 km/h (2 Bft) 91,53 %
22.08.2017 21:22 20,8 C 19,4 C 17,2 C 65 % 0 lf 1017,7 hPa 0,0 l/m 0 min 0 min 0 W/m 6,3 km/h (2 Bft) 87,23 %
22.08.2017 21:24 20,8 C 19,4 C 17,2 C 65 % 0 lf 1017,7 hPa 0,0 l/m 0 min 0 min 0 W/m 6,3 km/h (2 Bft) 88,57 %
22.08.2017 21:26 20,7 C 19,4 C 17,2 C 65 % 0 lf 1017,7 hPa 0,0 l/m 0 min 0 min 0 W/m 6,3 km/h (2 Bft) 93,62 %
22.08.2017 21:28 20,7 C 18,9 C 17,2 C 65 % 0 lf 1017,7 hPa 0,0 l/m 0 min 0 min 0 W/m 6,3 km/h (2 Bft) 87,93 %
22.08.2017 21:30 20,7 C 18,9 C 17,2 C 65 % 0 lf 1017,7 hPa 0,0 l/m 0 min 0 min 0 W/m 12,6 km/h (3 Bft) 89,36 %
22.08.2017 21:32 20,6 C 18,9 C 17,2 C 65 % 0 lf 1017,7 hPa 0,0 l/m 0 min 0 min 0 W/m 8,4 km/h (2 Bft) 93,62 %
22.08.2017 21:34 20,6 C 18,9 C 16,7 C 66 % 0 lf 1017,7 hPa 0,0 l/m 0 min 0 min 0 W/m 4,2 km/h (1 Bft) 91,49 %
22.08.2017 21:36 20,5 C 18,9 C 16,7 C 66 % 0 lf 1017,6 hPa 0,0 l/m 0 min 0 min 0 W/m 6,3 km/h (2 Bft) 97,14 %
22.08.2017 21:38 20,5 C 18,9 C 16,7 C 66 % 0 lf 1017,6 hPa 0,0 l/m 0 min 0 min 0 W/m 6,3 km/h (2 Bft) 94,83 %
22.08.2017 21:40 20,4 C 18,9 C 17,2 C 66 % 0 lf 1017,7 hPa 0,0 l/m 0 min 0 min 0 W/m 6,3 km/h (2 Bft) 89,36 %
22.08.2017 21:42 20,4 C 18,9 C 16,7 C 66 % 0 lf 1017,6 hPa 0,0 l/m 0 min 0 min 0 W/m 6,3 km/h (2 Bft) 94,29 %
22.08.2017 21:44 20,3 C 18,9 C 16,7 C 66 % 0 lf 1017,6 hPa 0,0 l/m 0 min 0 min 0 W/m 10,5 km/h (2 Bft) 96,61 %
22.08.2017 21:46 20,3 C 18,9 C 16,7 C 66 % 0 lf 1017,6 hPa 0,0 l/m 0 min 0 min 0 W/m 10,5 km/h (2 Bft) 95,74 %
22.08.2017 21:48 20,2 C 18,9 C 16,7 C 66 % 0 lf 1017,6 hPa 0,0 l/m 0 min 0 min 0 W/m 6,3 km/h (2 Bft) 97,83 %
22.08.2017 21:50 20,2 C 18,9 C 16,7 C 66 % 0 lf 1017,6 hPa 0,0 l/m 0 min 0 min 0 W/m 10,5 km/h (2 Bft) 93,62 %
22.08.2017 21:52 20,1 C 18,9 C 16,7 C 67 % 0 lf 1017,6 hPa 0,0 l/m 0 min 0 min 2 W/m 14,6 km/h (3 Bft) 95,74 %
22.08.2017 21:54 20,1 C 18,9 C 16,7 C 67 % 0 lf 1017,6 hPa 0,0 l/m 0 min 0 min 5 W/m 10,5 km/h (2 Bft) 100,00 %
22.08.2017 21:56 20,0 C 18,9 C 16,7 C 67 % 0 lf 1017,6 hPa 0,0 l/m 0 min 0 min 5 W/m 12,6 km/h (3 Bft) 93,62 %
22.08.2017 21:58 20,0 C 18,9 C 16,7 C 67 % 0 lf 1017,7 hPa 0,0 l/m 0 min 0 min 1 W/m 10,5 km/h (2 Bft) 100,00 %
22.08.2017 22:00 19,9 C 18,9 C 16,7 C 67 % 0 lf 1017,7 hPa 0,0 l/m 0 min 0 min 0 W/m 12,6 km/h (3 Bft) 95,74 %
22.08.2017 22:02 19,9 C 18,9 C 16,7 C 67 % 0 lf 1017,6 hPa 0,0 l/m 0 min 0 min 0 W/m 10,5 km/h (2 Bft) 97,87 %
22.08.2017 22:04 19,8 C 18,3 C 16,7 C 67 % 0 lf 1017,7 hPa 0,0 l/m 0 min 0 min 0 W/m 10,5 km/h (2 Bft) 94,29 %
22.08.2017 22:06 19,8 C 18,3 C 16,7 C 67 % 0 lf 1017,7 hPa 0,0 l/m 0 min 0 min 0 W/m 10,5 km/h (2 Bft) 98,18 %
22.08.2017 22:08 19,8 C 18,3 C 16,7 C 67 % 0 lf 1017,6 hPa 0,0 l/m 0 min 0 min 2 W/m 10,5 km/h (2 Bft) 87,23 %
22.08.2017 22:10 19,7 C 18,3 C 16,7 C 68 % 0 lf 1017,7 hPa 0,0 l/m 0 min 0 min 0 W/m 10,5 km/h (2 Bft) 95,74 %
22.08.2017 22:12 19,7 C 18,3 C 16,7 C 68 % 0 lf 1017,7 hPa 0,0 l/m 0 min 0 min 3 W/m 10,5 km/h (2 Bft) 95,65 %
22.08.2017 22:14 19,6 C 18,3 C 16,7 C 68 % 0 lf 1017,7 hPa 0,0 l/m 0 min 0 min 3 W/m 10,5 km/h (2 Bft) 93,62 %
22.08.2017 22:16 19,6 C 17,8 C 16,1 C 68 % 0 lf 1017,7 hPa 0,0 l/m 0 min 0 min 0 W/m 10,5 km/h (2 Bft) 93,62 %
22.08.2017 22:18 19,6 C 17,8 C 16,1 C 68 % 0 lf 1017,7 hPa 0,0 l/m 0 min 0 min 0 W/m 6,3 km/h (2 Bft) 97,87 %
22.08.2017 22:20 19,5 C 17,8 C 16,1 C 69 % 0 lf 1017,7 hPa 0,0 l/m 0 min 0 min 0 W/m 8,4 km/h (2 Bft) 97,87 %
22.08.2017 22:22 19,5 C 17,8 C 16,1 C 69 % 0 lf 1017,7 hPa 0,0 l/m 0 min 0 min 0 W/m 8,4 km/h (2 Bft) 95,74 %
22.08.2017 22:24 19,4 C 17,8 C 16,1 C 69 % 0 lf 1017,7 hPa 0,0 l/m 0 min 0 min 0 W/m 10,5 km/h (2 Bft) 97,83 %
22.08.2017 22:26 19,4 C 17,8 C 16,1 C 69 % 0 lf 1017,7 hPa 0,0 l/m 0 min 0 min 0 W/m 8,4 km/h (2 Bft) 91,49 %
22.08.2017 22:28 19,3 C 17,8 C 16,1 C 69 % 0 lf 1017,7 hPa 0,0 l/m 0 min 0 min 0 W/m 12,6 km/h (3 Bft) 95,74 %
22.08.2017 22:30 19,3 C 17,8 C 16,1 C 69 % 0 lf 1017,7 hPa 0,0 l/m 0 min 0 min 0 W/m 10,5 km/h (2 Bft) 93,62 %
22.08.2017 22:32 19,3 C 17,8 C 16,1 C 70 % 0 lf 1017,7 hPa 0,0 l/m 0 min 0 min 0 W/m 12,6 km/h (3 Bft) 89,36 %
22.08.2017 22:34 19,2 C 17,8 C 16,1 C 70 % 0 lf 1017,7 hPa 0,0 l/m 0 min 0 min 0 W/m 10,5 km/h (2 Bft) 97,87 %
22.08.2017 22:36 19,2 C 17,8 C 16,1 C 70 % 0 lf 1017,7 hPa 0,0 l/m 0 min 0 min 0 W/m 10,5 km/h (2 Bft) 97,83 %
22.08.2017 22:38 19,1 C 17,8 C 16,1 C 70 % 0 lf 1017,6 hPa 0,0 l/m 0 min 0 min 0 W/m 8,4 km/h (2 Bft) 95,74 %
22.08.2017 22:40 19,1 C 17,8 C 16,1 C 70 % 0 lf 1017,6 hPa 0,0 l/m 0 min 0 min 2 W/m 8,4 km/h (2 Bft) 95,74 %
22.08.2017 22:42 19,0 C 17,8 C 16,1 C 70 % 0 lf 1017,6 hPa 0,0 l/m 0 min 0 min 0 W/m 10,5 km/h (2 Bft) 97,87 %
22.08.2017 22:44 18,9 C 17,8 C 16,1 C 70 % 0 lf 1017,6 hPa 0,0 l/m 0 min 0 min 0 W/m 12,6 km/h (3 Bft) 93,62 %
22.08.2017 22:46 18,9 C 17,8 C 16,1 C 71 % 0 lf 1017,6 hPa 0,0 l/m 0 min 0 min 0 W/m 16,7 km/h (3 Bft) 97,87 %
22.08.2017 22:48 18,9 C 17,2 C 16,1 C 71 % 0 lf 1017,6 hPa 0,0 l/m 0 min 0 min 3 W/m 8,4 km/h (2 Bft) 95,65 %
22.08.2017 22:50 18,8 C 17,8 C 16,1 C 71 % 0 lf 1017,6 hPa 0,0 l/m 0 min 0 min 3 W/m 10,5 km/h (2 Bft) 93,62 %
22.08.2017 22:52 18,8 C 17,2 C 16,1 C 71 % 0 lf 1017,6 hPa 0,0 l/m 0 min 0 min 0 W/m 8,4 km/h (2 Bft) 97,87 %
22.08.2017 22:54 18,7 C 17,2 C 16,1 C 71 % 0 lf 1017,6 hPa 0,0 l/m 0 min 0 min 0 W/m 10,5 km/h (2 Bft) 97,87 %
22.08.2017 22:56 18,7 C 17,2 C 16,1 C 71 % 0 lf 1017,6 hPa 0,0 l/m 0 min 0 min 2 W/m 10,5 km/h (2 Bft) 91,49 %
22.08.2017 22:58 18,7 C 17,2 C 16,1 C 71 % 0 lf 1017,6 hPa 0,0 l/m 0 min 0 min 0 W/m 10,5 km/h (2 Bft) 95,74 %
22.08.2017 23:00 18,6 C 17,2 C 16,1 C 71 % 0 lf 1017,6 hPa 0,0 l/m 0 min 0 min 0 W/m 12,6 km/h (3 Bft) 91,30 %
22.08.2017 23:02 18,6 C 17,2 C 16,1 C 71 % 0 lf 1017,6 hPa 0,0 l/m 0 min 0 min 0 W/m 8,4 km/h (2 Bft) 89,36 %
22.08.2017 23:04 18,6 C 17,2 C 15,6 C 71 % 0 lf 1017,6 hPa 0,0 l/m 0 min 0 min 0 W/m 6,3 km/h (2 Bft) 95,74 %
22.08.2017 23:06 18,6 C 17,2 C 16,1 C 71 % 0 lf 1017,6 hPa 0,0 l/m 0 min 0 min 0 W/m 10,5 km/h (2 Bft) 96,00 %
22.08.2017 23:08 18,5 C 17,2 C 15,6 C 72 % 0 lf 1017,6 hPa 0,0 l/m 0 min 0 min 0 W/m 8,4 km/h (2 Bft) 91,49 %
22.08.2017 23:10 18,4 C 17,2 C 15,6 C 72 % 0 lf 1017,6 hPa 0,0 l/m 0 min 0 min 0 W/m 8,4 km/h (2 Bft) 93,48 %
22.08.2017 23:12 18,4 C 17,2 C 15,6 C 72 % 0 lf 1017,6 hPa 0,0 l/m 0 min 0 min 2 W/m 12,6 km/h (3 Bft) 93,62 %
22.08.2017 23:14 18,4 C 16,7 C 15,6 C 72 % 0 lf 1017,6 hPa 0,0 l/m 0 min 0 min 0 W/m 14,6 km/h (3 Bft) 95,74 %
22.08.2017 23:16 18,4 C 17,2 C 15,6 C 72 % 0 lf 1017,6 hPa 0,0 l/m 0 min 0 min 0 W/m 14,6 km/h (3 Bft) 95,74 %
22.08.2017 23:18 18,3 C 17,2 C 15,6 C 72 % 0 lf 1017,6 hPa 0,0 l/m 0 min 0 min 5 W/m 14,6 km/h (3 Bft) 91,49 %
22.08.2017 23:20 18,3 C 17,2 C 15,6 C 73 % 0 lf 1017,6 hPa 0,0 l/m 0 min 0 min 0 W/m 14,6 km/h (3 Bft) 93,62 %
22.08.2017 23:22 18,3 C 16,7 C 15,6 C 73 % 0 lf 1017,6 hPa 0,0 l/m 0 min 0 min 5 W/m 8,4 km/h (2 Bft) 91,30 %
22.08.2017 23:24 18,2 C 16,7 C 15,6 C 73 % 0 lf 1017,6 hPa 0,0 l/m 0 min 0 min 5 W/m 8,4 km/h (2 Bft) 95,74 %
22.08.2017 23:26 18,2 C 16,7 C 15,6 C 73 % 0 lf 1017,6 hPa 0,0 l/m 0 min 0 min 3 W/m 6,3 km/h (2 Bft) 89,36 %
22.08.2017 23:28 18,2 C 16,7 C 15,6 C 73 % 0 lf 1017,6 hPa 0,0 l/m 0 min 0 min 0 W/m 6,3 km/h (2 Bft) 93,62 %
22.08.2017 23:30 18,1 C 16,7 C 15,6 C 73 % 0 lf 1017,6 hPa 0,0 l/m 0 min 0 min 5 W/m 10,5 km/h (2 Bft) 93,62 %
22.08.2017 23:32 18,1 C 16,7 C 15,6 C 73 % 0 lf 1017,5 hPa 0,0 l/m 0 min 0 min 1 W/m 12,6 km/h (3 Bft) 87,23 %
22.08.2017 23:34 18,1 C 16,7 C 15,6 C 74 % 0 lf 1017,4 hPa 0,0 l/m 0 min 0 min 0 W/m 10,5 km/h (2 Bft) 89,13 %
22.08.2017 23:36 18,0 C 16,7 C 15,6 C 74 % 0 lf 1017,5 hPa 0,0 l/m 0 min 0 min 0 W/m 14,6 km/h (3 Bft) 89,36 %
22.08.2017 23:38 18,0 C 16,7 C 15,6 C 74 % 0 lf 1017,5 hPa 0,0 l/m 0 min 0 min 0 W/m 12,6 km/h (3 Bft) 89,36 %
22.08.2017 23:40 17,9 C 16,7 C 15,0 C 74 % 0 lf 1017,4 hPa 0,0 l/m 0 min 0 min 0 W/m 10,5 km/h (2 Bft) 91,49 %
22.08.2017 23:42 17,9 C 16,7 C 15,0 C 74 % 0 lf 1017,5 hPa 0,0 l/m 0 min 0 min 0 W/m 14,6 km/h (3 Bft) 91,49 %
22.08.2017 23:44 17,9 C 16,7 C 15,0 C 74 % 0 lf 1017,4 hPa 0,0 l/m 0 min 0 min 0 W/m 8,4 km/h (2 Bft) 87,23 %
22.08.2017 23:46 17,9 C 16,7 C 15,0 C 74 % 0 lf 1017,3 hPa 0,0 l/m 0 min 0 min 0 W/m 8,4 km/h (2 Bft) 89,13 %
22.08.2017 23:48 17,8 C 16,7 C 15,0 C 75 % 0 lf 1017,4 hPa 0,0 l/m 0 min 0 min 0 W/m 6,3 km/h (2 Bft) 91,49 %
22.08.2017 23:50 17,8 C 16,7 C 15,0 C 74 % 0 lf 1017,4 hPa 0,0 l/m 0 min 0 min 0 W/m 8,4 km/h (2 Bft) 87,23 %
22.08.2017 23:52 17,8 C 16,7 C 15,0 C 75 % 0 lf 1017,5 hPa 0,0 l/m 0 min 0 min 1 W/m 10,5 km/h (2 Bft) 91,49 %
22.08.2017 23:54 17,7 C 16,7 C 15,0 C 75 % 0 lf 1017,3 hPa 0,0 l/m 0 min 0 min 4 W/m 8,4 km/h (2 Bft) 93,62 %
22.08.2017 23:56 17,7 C 16,7 C 15,0 C 75 % 0 lf 1017,4 hPa 0,0 l/m 0 min 0 min 0 W/m 10,5 km/h (2 Bft) 89,36 %
22.08.2017 23:58 17,7 C 16,7 C 15,0 C 75 % 0 lf 1017,5 hPa 0,0 l/m 0 min 0 min 0 W/m 14,6 km/h (3 Bft) 91,30 %
_ Min-Zeit 05:18 02:38 03:22 15:58 00:00 23:46 - - - - 00:00 10:52
Minimum _ 12,0 C 11,1 C 10,0 C 49 % 0 lf 1017,3 hPa - - - - 0,0 km/h (0 Bft) 84,78 %
_ Max-Zeit 15:28 14:36 15:18 06:10 04:10 00:00 00:00 08:52 00:00 12:46 14:42 00:12
Maximum _ 25,9 C 34,4 C 35,0 C 95 % 4 lf 1021,4 hPa 0,0 l/m 2 min 0 min 1050 W/m 25,1 km/h
O-SO (4 Bft)
100,00 %
Durchschnitt _ 18,9 C 20,5 C 18,2 C 73 % 1 lf 1019,6 hPa #0,0 l/m #10:46 h #0 min. 395 W/m 8,5 km/h (2 Bft) 94,43 %
© 2017 W. Hausmann